CWXXXX Weather Reports


time (UTC)temp
C
wind
direction
speed
KPH
gust
KPH
rain 1hr
cm
rain 24hr
cm
rain mn
cm
humidity
%
barometer
mb
20260506134400 13 201 3.2 6.4 0.00 0.84 0.00 88 1005.9
20260506134343 22 355 3.2 14.5 0.00 0.74 0.00 74 1008.5
20260506134333 18 65 12.9 17.7 0.00 0.00 0.00 74 1010.5
20260506134330 14 348 4.8 4.8 0.03 0.46 0.00 91 1009.0
20260506134328 17 101 1.6 8.0 0.00 3.15 0.00 79 1007.4
20260506134318 20 8 0.0 0.0 0.00 0.05 0.00 64 1011.1
20260506134313 12 145 0.0 3.2 0.64 1.78 0.00 94 1009.0
20260506133857 13 154 0.0 6.4 0.00 0.84 0.00 88 1006.0
20260506133845 21 212 9.7 19.3 0.00 0.00 0.00 57 1011.6
20260506133833 18 56 9.7 17.7 0.00 0.00 0.00 77 1010.5
20260506133831 22 161 3.2 16.1 0.00 0.74 0.00 75 1008.6
20260506133825 17 239 16.1 16.1 0.03 3.15 0.00 78 1007.4
20260506133821 12 61 0.0 1.6 0.66 1.78 0.00 93 1008.9
20260506133816 15 159 6.4 14.5 0.20 0.61 0.00 86 1009.7
20260506133358 13 94 6.4 6.4 0.00 0.84 0.00 88 1006.0
20260506133348 21 191 9.7 22.5 0.00 0.00 0.00 57 1011.6
20260506133344 20 299 0.0 0.0 0.00 7.57 0.00 81 1009.1
20260506133334 22 140 11.3 14.5 0.00 0.74 0.00 75 1008.6
20260506133331 17 61 14.5 19.3 0.00 0.00 0.00 76 1010.6
20260506133328 17 257 11.3 14.5 0.03 3.15 0.00 79 1007.4
20260506133318 20 315 0.0 8.0 0.00 0.05 0.00 65 1011.0
20260506133313 12 61 0.0 6.4 0.74 1.78 0.00 93 1008.8
20260506132901 13 126 3.2 9.7 0.00 0.84 0.00 88 1005.9
20260506132843 21 165 8.0 22.5 0.00 0.00 0.00 57 1011.5
20260506132839 14 46 0.0 3.2 0.03 0.46 0.00 90 1009.3
20260506132831 21 195 1.6 9.7 0.00 0.74 0.00 77 1008.5
20260506132826 17 82 1.6 14.5 0.03 3.15 0.00 82 1007.4
20260506132821 20 338 0.0 9.7 0.00 0.05 0.00 65 1011.2
20260506132816 14 150 3.2 8.0 0.28 0.61 0.00 88 1009.7
20260506132812 12 83 1.6 4.8 0.76 1.78 0.00 93 1008.9
20260506132401 12 124 4.8 6.4 0.00 0.84 0.00 88 1005.9
20260506132343 21 202 9.7 24.1 0.00 0.00 0.00 55 1011.6
20260506132336 12 215 3.2 4.8 0.81 1.73 0.00 93 1009.1
20260506132333 14 46 0.0 3.2 0.08 0.46 0.00 90 1009.3
20260506132331 21 111 6.4 14.5 0.00 0.74 0.00 77 1008.5
20260506132325 17 116 4.8 4.8 0.03 3.15 0.00 83 1007.4
20260506132316 14 148 1.6 9.7 0.38 0.58 0.00 86 1009.8
20260506131900 12 84 1.6 6.4 0.00 0.84 0.00 88 1005.9
20260506131852 21 200 6.4 20.9 0.00 0.00 0.00 57 1011.6
20260506131847 20 291 0.0 1.6 0.00 7.57 0.00 78 1009.1
20260506131833 14 46 1.6 4.8 0.18 0.46 0.00 90 1009.4
20260506131831 21 170 3.2 14.5 0.00 0.74 0.00 79 1008.7
20260506131825 17 115 3.2 20.9 0.03 3.15 0.00 81 1007.4
20260506131816 13 112 0.0 4.8 0.41 0.58 0.00 86 1009.8
20260506131357 12 5 0.0 3.2 0.00 0.84 0.00 88 1005.8
20260506131345 21 201 6.4 22.5 0.00 0.00 0.00 58 1011.7
20260506131331 21 182 4.8 12.9 0.00 0.74 0.00 79 1008.8
20260506131326 17 142 4.8 17.7 0.03 3.15 0.00 83 1007.8
20260506131319 14 112 1.6 6.4 0.38 0.56 0.00 87 1009.8
20260506131316 12 184 3.2 6.4 0.79 1.55 0.00 93 1009.1
20260506130858 12 0 1.6 4.8 0.00 0.84 0.00 88 1005.8
20260506130842 21 200 9.7 25.7 0.00 0.00 0.00 57 1011.7
20260506130834 21 109 11.3 14.5 0.00 0.74 0.00 80 1008.8
20260506130830 13 41 0.0 3.2 0.28 0.46 0.00 90 1009.3
20260506130828 17 146 4.8 22.5 0.03 3.15 0.00 83 1007.8
20260506130818 12 193 3.2 6.4 0.71 1.45 0.00 93 1009.1
20260506130816 13 117 1.6 6.4 0.38 0.58 0.00 87 1009.9
20260506130400 12 0 3.2 6.4 0.00 0.84 0.00 88 1006.0
20260506130350 20 324 0.0 6.4 0.00 7.57 0.00 77 1009.2
20260506130342 22 158 9.7 17.7 0.00 0.00 0.00 57 1011.7
20260506130334 18 51 8.0 19.3 0.00 0.00 0.00 77 1010.8
20260506130331 21 153 3.2 14.5 0.00 0.74 0.00 80 1008.9
20260506130324 20 327 0.0 6.4 0.00 0.05 0.00 65 1011.3
20260506130313 14 157 3.2 14.5 0.36 0.56 0.00 86 1009.7
20260506125907 12 26 3.2 6.4 0.00 0.84 0.00 88 1005.9
20260506125842 21 174 6.4 19.3 0.00 0.00 0.00 59 1011.7
20260506125834 21 173 1.6 14.5 0.00 0.74 0.00 82 1009.0
20260506125830 18 69 16.1 17.7 0.00 0.00 0.00 76 1010.8
20260506125821 13 161 0.0 3.2 0.66 1.35 0.00 93 1008.9
20260506125815 20 326 0.0 3.2 0.00 0.05 0.00 63 1011.3
20260506125813 14 213 9.7 12.9 0.33 0.53 0.00 86 1009.7
20260506125400 12 125 3.2 6.4 0.00 0.84 0.00 88 1006.1
20260506125346 21 131 9.7 29.0 0.00 0.00 0.00 59 1011.7
20260506125336 18 10 6.4 19.3 0.00 0.00 0.00 77 1010.7
20260506125334 20 100 1.6 16.1 0.00 0.74 0.00 82 1009.0
20260506125330 13 28 8.0 9.7 0.30 0.46 0.00 90 1009.3
20260506125326 17 127 3.2 6.4 0.03 3.15 0.00 86 1007.4
20260506125315 20 0 0.0 6.4 0.00 0.05 0.00 64 1011.3
20260506125313 14 182 9.7 19.3 0.30 0.51 0.00 84 1009.7
20260506124900 12 59 3.2 6.4 0.00 0.84 0.00 88 1006.0
20260506124844 20 254 0.0 4.8 0.00 7.57 0.00 78 1009.1
20260506124842 21 158 8.0 19.3 0.00 0.00 0.00 57 1011.7
20260506124833 18 83 17.7 19.3 0.00 0.00 0.00 79 1010.9
20260506124831 20 109 6.4 14.5 0.00 0.74 0.00 83 1009.0
20260506124829 17 105 3.2 9.7 0.03 3.15 0.00 85 1007.4
20260506124815 20 300 0.0 11.3 0.00 0.05 0.00 64 1011.3
20260506124813 13 158 1.6 3.2 0.56 1.22 0.00 92 1009.0
20260506124404 11 69 4.8 8.0 0.00 0.84 0.00 88 1006.1
20260506124342 21 213 6.4 22.5 0.00 0.00 0.00 58 1011.8
20260506124333 13 214 3.2 6.4 0.28 0.43 0.00 89 1009.1
20260506124331 20 121 6.4 14.5 0.00 0.74 0.00 84 1009.0
20260506124326 17 225 1.6 9.7 0.03 3.15 0.00 86 1006.9
20260506124315 20 342 0.0 6.4 0.00 0.05 0.00 63 1011.4
20260506124313 15 261 6.4 27.4 0.25 0.46 0.00 82 1009.9
20260506123904 11 53 4.8 8.0 0.00 0.84 0.00 88 1006.1
20260506123848 21 188 11.3 20.9 0.00 0.00 0.00 59 1011.7
20260506123836 13 215 0.0 6.4 0.28 0.43 0.00 88 1009.0
20260506123834 20 171 6.4 14.5 0.00 0.74 0.00 84 1009.0
20260506123831 17 69 19.3 20.9 0.00 0.00 0.00 80 1010.8
20260506123826 17 129 4.8 11.3 0.00 3.15 0.00 85 1006.9
20260506123817 13 157 1.6 3.2 0.46 1.12 0.00 92 1009.1
20260506123815 20 300 0.0 4.8 0.00 0.05 0.00 63 1011.3
20260506123813 15 171 11.3 22.5 0.20 0.41 0.00 82 1009.8
20260506123358 11 40 6.4 9.7 0.00 0.84 0.00 88 1006.2
20260506123344 20 293 0.0 1.6 0.00 7.59 0.00 79 1009.1
20260506123342 21 176 9.7 20.9 0.00 0.00 0.00 59 1011.8
20260506123332 17 136 11.3 19.3 0.00 3.15 0.00 85 1006.9
20260506123330 18 61 16.1 22.5 0.00 0.00 0.00 80 1010.8
20260506123316 13 159 0.0 3.2 0.38 1.04 0.00 91 1009.0
20260506123313 15 200 9.7 22.5 0.18 0.38 0.00 82 1009.3
20260506122949 11 34 3.2 6.4 0.00 0.84 0.00 88 1006.2
20260506122845 21 190 11.3 27.4 0.00 0.00 0.00 58 1011.8
20260506122836 17 51 9.7 20.9 0.00 0.00 0.00 80 1010.9
20260506122831 20 90 11.3 14.5 0.00 0.74 0.00 85 1009.0
20260506122829 17 197 4.8 20.9 0.00 3.17 0.00 85 1007.2
20260506122827 13 158 3.2 3.2 0.36 1.02 0.00 91 1009.0
20260506122818 20 91 0.0 4.8 0.00 0.05 0.00 68 1011.4
20260506122813 16 146 8.0 24.1 0.13 0.33 0.00 84 1009.3
20260506122342 21 198 19.3 20.9 0.00 0.00 0.00 59 1011.8
20260506122340 20 169 3.2 12.9 0.00 0.74 0.00 87 1009.0
20260506122334 11 67 3.2 4.8 0.00 0.84 0.00 88 1006.3
20260506122330 14 248 0.0 9.7 0.23 0.36 0.00 83 1008.9
20260506122326 17 121 6.4 22.5 0.00 3.17 0.00 86 1007.2
20260506122316 16 196 20.9 25.7 0.00 0.20 0.00 81 1009.1
20260506122312 13 153 0.0 4.8 0.28 0.94 0.00 90 1009.0
20260506121850 20 310 0.0 1.6 0.05 8.05 0.00 84 1009.1
20260506121845 21 219 8.0 20.9 0.00 0.00 0.00 63 1011.8
20260506121834 11 101 4.8 8.0 0.00 0.84 0.00 88 1006.3
20260506121832 17 49 19.3 19.3 0.00 0.00 0.00 82 1010.9
20260506121830 15 267 16.1 30.6 0.13 0.28 0.00 80 1008.8
20260506121820 13 118 3.2 4.8 0.15 0.81 0.00 89 1009.1
20260506121816 16 38 4.8 16.1 0.00 0.18 0.00 80 1008.8
20260506121345 21 221 12.9 22.5 0.00 0.00 0.00 62 1011.8
20260506121340 11 57 1.6 4.8 0.00 0.81 0.00 88 1006.4
20260506121336 15 222 6.4 30.6 0.08 0.23 0.00 77 1008.5
20260506121334 19 114 14.5 17.7 0.00 0.74 0.00 87 1009.0
20260506121326 17 178 6.4 20.9 0.00 3.17 0.00 87 1007.3
20260506121319 16 321 6.4 16.1 0.00 0.18 0.00 79 1008.7
20260506121315 20 329 0.0 8.0 0.00 0.05 0.00 67 1011.4
20260506121312 13 102 0.0 1.6 0.08 0.74 0.00 88 1009.1
20260506120843 21 191 12.9 25.7 0.00 0.00 0.00 63 1011.7
20260506120838 17 64 14.5 22.5 0.00 0.00 0.00 82 1011.0
20260506120836 16 236 16.1 19.3 0.00 0.18 0.00 79 1008.3
20260506120831 19 115 9.7 19.3 0.00 0.74 0.00 88 1009.1
20260506120826 17 126 8.0 24.1 0.00 3.17 0.00 87 1007.3
20260506120819 16 340 14.5 16.1 0.00 0.18 0.00 79 1008.5
20260506120812 13 102 0.0 4.8 0.08 0.74 0.00 87 1009.1
20260506120344 19 347 0.0 4.8 0.08 8.66 0.00 88 1009.0
20260506120342 22 190 9.7 19.3 0.00 0.00 0.00 63 1011.8
20260506120340 18 115 16.1 20.9 0.00 0.74 0.00 89 1009.0
20260506120334 11 89 1.6 4.8 0.00 0.81 0.00 88 1006.4
20260506120330 16 229 1.6 11.3 0.00 0.18 0.00 81 1008.4
20260506120326 17 81 3.2 20.9 0.00 3.17 0.00 87 1007.3
20260506120318 20 328 0.0 8.0 0.00 0.05 0.00 69 1011.4
20260506120315 13 99 0.0 4.8 0.03 0.71 0.00 87 1009.0
20260506120313 16 336 8.0 11.3 0.00 0.18 0.00 79 1008.6
20260506115842 22 194 6.4 17.7 0.00 0.00 0.00 63 1011.8
20260506115834 18 113 9.7 14.5 0.00 0.74 0.00 92 1009.2
20260506115830 17 84 12.9 20.9 0.00 0.03 0.00 82 1011.0
20260506115819 13 78 1.6 4.8 0.00 0.69 0.00 87 1009.1
20260506115813 16 20 6.4 12.9 0.00 0.18 0.00 80 1008.5
20260506115342 21 152 9.7 20.9 0.00 0.00 0.00 63 1011.9
20260506115335 11 109 1.6 9.7 0.00 0.81 0.00 88 1006.3
20260506115330 17 57 17.7 20.9 0.00 0.03 0.00 82 1011.0
20260506115326 16 139 14.5 20.9 0.00 3.17 0.00 88 1007.2
20260506115315 19 320 0.0 6.4 0.00 0.05 0.00 71 1011.5
20260506115313 16 39 6.4 12.9 0.03 0.18 0.00 78 1008.5
20260506114847 18 296 0.0 4.8 0.08 8.66 0.00 89 1009.0
20260506114845 21 172 14.5 24.1 0.00 0.00 0.00 63 1012.0
20260506114840 16 63 19.3 22.5 0.00 0.03 0.00 83 1011.0
20260506114834 11 107 3.2 14.5 0.00 0.81 0.00 88 1006.2
20260506114831 17 119 8.0 22.5 0.15 0.74 0.00 93 1009.1
20260506114819 13 57 8.0 8.0 0.00 0.66 0.00 85 1009.2
20260506114815 19 325 1.6 8.0 0.00 0.05 0.00 69 1011.5
20260506114813 16 0 6.4 12.9 0.03 0.18 0.00 77 1008.5
20260506114342 21 169 8.0 24.1 0.00 0.00 0.00 63 1012.1
20260506114335 11 112 3.2 8.0 0.00 0.84 0.00 88 1006.3
20260506114333 17 60 16.1 20.9 0.00 0.03 0.00 82 1011.0
20260506114331 17 115 4.8 19.3 0.20 0.74 0.00 94 1009.2
20260506114326 16 96 1.6 11.3 0.00 3.23 0.00 88 1007.3
20260506114324 18 288 0.0 6.4 0.00 0.05 0.00 71 1011.5
20260506114313 16 312 8.0 8.0 0.03 0.18 0.00 78 1008.5
20260506113848 21 197 9.7 24.1 0.00 0.00 0.00 63 1012.1
20260506113837 11 95 3.2 11.3 0.00 0.84 0.00 88 1006.4
20260506113834 17 98 4.8 20.9 0.20 0.74 0.00 94 1009.3
20260506113829 16 216 11.3 27.4 0.00 3.23 0.00 88 1007.3
20260506113821 18 258 0.0 1.6 0.00 0.05 0.00 71 1011.4
20260506113813 17 324 4.8 8.0 0.03 0.18 0.00 80 1008.5
20260506113348 21 142 14.5 20.9 0.00 0.00 0.00 64 1012.1
20260506113344 19 208 0.0 3.2 0.08 8.66 0.00 89 1009.0
20260506113338 11 30 8.0 8.0 0.00 0.86 0.00 88 1006.3
20260506113336 17 19 1.6 3.2 0.00 0.18 0.00 77 1007.6
20260506113334 17 127 11.3 20.9 0.20 0.74 0.00 94 1009.2
20260506113329 16 155 6.4 32.2 0.00 3.28 0.00 89 1007.3
20260506113322 16 304 6.4 6.4 0.03 0.18 0.00 81 1008.6
20260506113312 14 117 0.0 4.8 0.00 0.69 0.00 83 1009.3
20260506112843 21 209 8.0 32.2 0.00 0.00 0.00 66 1012.1
20260506112839 17 64 6.4 16.1 0.00 0.03 0.00 79 1011.1
20260506112835 11 46 3.2 14.5 0.00 0.91 0.00 88 1006.2
20260506112830 17 20 0.0 0.0 0.00 0.18 0.00 78 1007.7
20260506112826 16 88 4.8 14.5 0.00 3.35 0.00 89 1007.3
20260506112816 16 311 4.8 8.0 0.03 0.18 0.00 78 1008.6
20260506112342 21 209 25.7 30.6 0.00 0.00 0.00 66 1012.1
20260506112338 11 53 11.3 16.1 0.00 0.94 0.00 88 1006.2
20260506112336 17 20 0.0 0.0 0.00 0.18 0.00 78 1007.7
20260506112333 17 54 11.3 17.7 0.00 0.03 0.00 79 1011.1
20260506112331 17 107 4.8 14.5 0.20 0.74 0.00 95 1009.3
20260506112329 16 174 8.0 11.3 0.00 3.38 0.00 89 1007.3
20260506112316 16 355 1.6 8.0 0.05 0.18 0.00 80 1008.7
20260506112312 14 90 3.2 6.4 0.00 0.74 0.00 84 1009.4
20260506111851 21 186 16.1 29.0 0.00 0.00 0.00 66 1012.2
20260506111844 20 323 0.0 9.7 0.00 8.76 0.00 82 1009.0
20260506111837 17 103 6.4 17.7 0.20 0.74 0.00 95 1009.4
20260506111835 11 77 8.0 12.9 0.00 0.99 0.00 88 1006.3
20260506111833 18 62 14.5 17.7 0.00 0.03 0.00 76 1011.1
20260506111830 17 20 0.0 0.0 0.00 0.18 0.00 77 1007.8
20260506111826 16 219 3.2 11.3 0.00 3.40 0.00 89 1007.3
20260506111822 16 253 0.0 4.8 0.05 0.18 0.00 79 1008.8
20260506111815 14 109 1.6 9.7 0.00 0.74 0.00 84 1009.5
20260506111351 21 185 8.0 24.1 0.00 0.00 0.00 66 1012.2
20260506111335 11 50 4.8 12.9 0.00 0.99 0.00 88 1006.3
20260506111331 16 96 9.7 20.9 0.20 0.74 0.00 94 1009.4
20260506111318 17 65 0.0 8.0 0.00 0.05 0.00 75 1011.6
20260506111313 16 207 0.0 3.2 0.05 0.20 0.00 80 1008.9
20260506110846 21 231 16.1 24.1 0.00 0.00 0.00 66 1012.2
20260506110838 11 38 8.0 9.7 0.00 0.99 0.00 88 1006.4
20260506110836 17 20 0.0 1.6 0.00 0.18 0.00 79 1008.2
20260506110834 16 117 16.1 20.9 0.20 0.74 0.00 94 1009.2
20260506110830 17 48 8.0 14.5 0.00 0.03 0.00 78 1011.1
20260506110826 16 323 0.0 16.1 0.00 3.51 0.00 90 1007.4
20260506110824 17 77 0.0 4.8 0.00 0.05 0.00 75 1011.5
20260506110819 16 196 3.2 3.2 0.05 0.20 0.00 80 1009.1
20260506110812 13 92 3.2 4.8 0.00 0.79 0.00 85 1009.6
20260506110345 21 162 9.7 20.9 0.00 0.00 0.00 66 1012.3
20260506110338 11 47 9.7 11.3 0.00 0.99 0.00 88 1006.4
20260506110334 16 118 17.7 20.9 0.20 0.74 0.00 93 1009.2
20260506110330 17 59 14.5 14.5 0.00 0.03 0.00 78 1011.2
20260506110315 17 4 4.8 4.8 0.00 0.05 0.00 74 1011.5
20260506110313 14 63 4.8 9.7 0.00 0.79 0.00 85 1009.6
20260506105845 21 212 9.7 24.1 0.00 0.00 0.00 65 1012.4
20260506105838 11 24 12.9 16.1 0.00 0.99 0.00 88 1006.5
20260506105836 17 74 6.4 11.3 0.00 0.03 0.00 80 1011.2
20260506105831 16 82 11.3 17.7 0.18 0.71 0.00 92 1009.2
20260506105826 16 121 6.4 22.5 0.00 3.61 0.00 90 1007.8
20260506105817 14 123 6.4 9.7 0.00 0.79 0.00 87 1009.7
20260506105815 17 312 0.0 0.0 0.00 0.05 0.00 74 1011.6
20260506105813 16 200 3.2 3.2 0.05 0.23 0.00 80 1009.4
20260506105345 21 212 8.0 24.1 0.00 0.00 0.00 65 1012.4
20260506105339 16 217 1.6 3.2 0.00 0.18 0.00 86 1008.6
20260506105335 11 60 4.8 11.3 0.00 0.99 0.00 88 1006.5
20260506105333 17 64 9.7 16.1 0.00 0.03 0.00 81 1011.1
20260506105326 16 96 6.4 20.9 0.00 3.63 0.00 91 1007.8
20260506105319 16 59 0.0 3.2 0.00 0.18 0.00 79 1009.5
20260506105315 17 359 0.0 6.4 0.00 0.05 0.00 74 1011.7
20260506105312 14 53 0.0 0.0 0.00 0.81 0.00 86 1009.8
20260506104847 20 170 0.0 6.4 0.00 8.76 0.00 83 1008.9
20260506104842 21 184 8.0 22.5 0.00 0.00 0.00 63 1012.4
20260506104838 11 78 6.4 9.7 0.00 0.99 0.00 88 1006.6
20260506104835 17 99 14.5 17.7 0.05 0.56 0.00 91 1009.8
20260506104833 16 217 0.0 3.2 0.00 0.20 0.00 86 1008.7
20260506104830 17 49 16.1 19.3 0.00 0.03 0.00 82 1011.1
20260506104822 16 59 0.0 8.0 0.00 0.18 0.00 80 1009.5
20260506104815 17 289 0.0 0.0 0.00 0.05 0.00 75 1011.8
20260506104812 13 116 0.0 3.2 0.00 0.84 0.00 87 1009.8
20260506104345 21 152 9.7 20.9 0.00 0.00 0.00 63 1012.5
20260506104341 11 80 3.2 6.4 0.00 0.99 0.00 88 1006.6
20260506104334 17 138 3.2 12.9 0.00 0.51 0.00 90 1010.1
20260506104330 16 217 0.0 0.0 0.00 0.20 0.00 85 1008.9
20260506104326 15 198 3.2 24.1 0.00 3.66 0.00 93 1007.9
20260506104318 17 332 0.0 4.8 0.00 0.05 0.00 75 1011.9
20260506104313 16 32 3.2 6.4 0.00 0.20 0.00 80 1009.6
20260506103844 11 43 1.6 8.0 0.00 0.99 0.00 88 1006.7
20260506103842 21 221 14.5 27.4 0.00 0.00 0.00 61 1012.4
20260506103833 15 355 1.6 6.4 0.00 3.66 0.00 94 1007.9
20260506103831 17 129 6.4 16.1 0.00 0.51 0.00 89 1010.0
20260506103821 17 313 3.2 3.2 0.00 0.05 0.00 74 1011.9
20260506103816 16 17 6.4 8.0 0.00 0.20 0.00 79 1009.6
20260506103812 14 109 0.0 0.0 0.00 0.84 0.00 88 1009.8
20260506103349 20 72 0.0 14.5 0.00 8.76 0.00 81 1008.9
20260506103345 22 220 16.1 19.3 0.00 0.00 0.00 60 1012.4
20260506103338 11 45 4.8 9.7 0.00 0.99 0.00 88 1006.6
20260506103333 16 217 0.0 1.6 0.00 0.25 0.00 84 1009.0
20260506103331 17 85 4.8 11.3 0.00 0.51 0.00 89 1009.9
20260506103326 15 195 6.4 9.7 0.00 3.71 0.00 94 1007.9
20260506103322 16 346 4.8 11.3 0.00 0.20 0.00 80 1009.6
20260506103315 17 333 0.0 4.8 0.00 0.05 0.00 75 1011.9
20260506102845 22 166 12.9 20.9 0.00 0.00 0.00 60 1012.4
20260506102835 11 75 1.6 12.9 0.00 1.02 0.00 88 1006.6
20260506102831 16 82 6.4 11.3 0.00 0.03 0.00 83 1011.4
20260506102821 17 300 0.0 4.8 0.00 0.05 0.00 76 1011.9
20260506102815 13 105 0.0 3.2 0.00 0.89 0.00 83 1009.9
20260506102813 16 14 8.0 9.7 0.00 0.23 0.00 81 1009.7
20260506102348 22 198 6.4 22.5 0.00 0.00 0.00 59 1012.4
20260506102340 17 94 9.7 14.5 0.00 0.51 0.00 88 1009.9
20260506102335 11 50 4.8 9.7 0.00 1.02 0.00 88 1006.6
20260506102333 17 32 9.7 14.5 0.00 0.03 0.00 84 1011.3
20260506102330 16 217 0.0 1.6 0.00 0.28 0.00 84 1009.0
20260506102326 15 229 1.6 4.8 0.00 3.76 0.00 94 1007.9
20260506102321 17 36 3.2 8.0 0.00 0.05 0.00 76 1011.9
20260506102313 16 5 4.8 6.4 0.00 0.20 0.00 81 1009.7
20260506101847 20 140 0.0 14.5 0.00 8.76 0.00 81 1008.8
20260506101845 22 162 6.4 19.3 0.00 0.00 0.00 57 1012.4
20260506101841 17 74 6.4 14.5 0.00 0.51 0.00 88 1009.9
20260506101836 11 42 6.4 8.0 0.00 1.02 0.00 88 1006.7
20260506101833 16 217 0.0 1.6 0.00 0.28 0.00 85 1009.0
20260506101826 15 231 1.6 6.4 0.00 3.78 0.00 94 1007.9
20260506101815 17 351 0.0 4.8 0.00 0.05 0.00 76 1012.0
20260506101813 16 221 4.8 4.8 0.00 0.20 0.00 80 1009.8
20260506101345 21 133 3.2 20.9 0.00 0.00 0.00 56 1012.4
20260506101339 16 217 0.0 3.2 0.00 0.28 0.00 85 1009.1
20260506101335 11 21 1.6 8.0 0.00 1.02 0.00 88 1006.7
20260506101333 16 78 6.4 9.7 0.00 0.03 0.00 85 1011.5
20260506101331 17 115 11.3 14.5 0.00 0.51 0.00 88 1009.8
20260506101329 15 200 3.2 4.8 0.00 3.78 0.00 94 1007.9
20260506101316 16 328 1.6 6.4 0.00 0.23 0.00 79 1009.7
20260506100842 21 166 16.1 22.5 0.00 0.00 0.00 59 1012.4
20260506100835 11 59 4.8 11.3 0.00 1.02 0.00 88 1006.7
20260506100833 16 217 1.6 6.4 0.00 0.30 0.00 86 1009.2
20260506100831 17 117 9.7 17.7 0.00 0.51 0.00 87 1009.9
20260506100815 16 16 0.0 8.0 0.00 0.05 0.00 76 1011.9
20260506100813 16 320 4.8 9.7 0.00 0.23 0.00 79 1009.7
20260506100353 20 231 0.0 1.6 0.00 8.79 0.00 81 1008.7
20260506100342 21 163 8.0 19.3 0.00 0.00 0.00 59 1012.4
20260506100338 11 65 4.8 8.0 0.00 1.02 0.00 88 1006.8
20260506100331 17 109 4.8 16.1 0.00 0.51 0.00 87 1009.9
20260506100326 14 78 3.2 6.4 0.00 3.81 0.00 95 1007.9
20260506100316 16 0 3.2 11.3 0.00 0.25 0.00 78 1009.6
20260506095843 21 215 8.0 24.1 0.00 0.00 0.00 58 1012.5
20260506095838 11 75 4.8 11.3 0.00 1.02 0.00 88 1006.8
20260506095836 15 217 0.0 1.6 0.00 0.30 0.00 89 1009.1
20260506095831 17 86 4.8 14.5 0.00 0.51 0.00 87 1009.9
20260506095829 14 242 3.2 6.4 0.00 3.81 0.00 95 1008.0
20260506095819 13 129 1.6 4.8 0.00 0.94 0.00 87 1010.0
20260506095815 16 231 0.0 9.7 0.00 0.05 0.00 81 1012.0
20260506095813 16 318 6.4 12.9 0.00 0.25 0.00 78 1009.5
20260506095351 21 164 11.3 20.9 0.00 0.00 0.00 58 1012.4
20260506095338 11 57 4.8 14.5 0.00 1.02 0.00 88 1006.8
20260506095333 15 217 1.6 8.0 0.00 0.30 0.00 89 1009.2
20260506095330 17 74 14.5 16.1 0.00 0.03 0.00 82 1011.4
20260506095326 15 258 4.8 4.8 0.00 3.84 0.00 95 1008.0
20260506095321 13 90 0.0 1.6 0.00 0.94 0.00 88 1009.8
20260506095318 16 50 3.2 8.0 0.00 0.05 0.00 79 1011.9
20260506095316 16 9 14.5 14.5 0.00 0.25 0.00 79 1009.5
20260506094847 20 262 0.0 4.8 0.00 8.81 0.00 83 1008.5
20260506094842 21 216 9.7 22.5 0.00 0.00 0.00 57 1012.4
20260506094836 15 219 8.0 9.7 0.00 0.30 0.00 89 1009.2
20260506094831 17 122 1.6 12.9 0.00 0.51 0.00 87 1009.9
20260506094826 15 188 1.6 8.0 0.00 3.86 0.00 95 1008.0
20260506094822 13 90 0.0 0.0 0.00 0.94 0.00 89 1009.8
20260506094813 16 355 8.0 14.5 0.00 0.25 0.00 79 1009.5
20260506094349 21 192 9.7 22.5 0.00 0.00 0.00 57 1012.5
20260506094345 11 50 3.2 12.9 0.00 1.04 0.00 88 1006.8
20260506094337 17 63 6.4 6.4 0.00 0.03 0.00 82 1011.7
20260506094331 17 123 8.0 19.3 0.00 0.51 0.00 87 1009.9
20260506094326 15 159 1.6 6.4 0.00 3.86 0.00 95 1008.1
20260506094319 13 90 0.0 1.6 0.00 0.94 0.00 89 1009.9
20260506094315 16 358 0.0 1.6 0.00 0.05 0.00 79 1012.0
20260506093845 21 212 22.5 20.9 0.00 0.00 0.00 52 1012.4
20260506093838 11 38 4.8 8.0 0.00 1.07 0.00 88 1006.7
20260506093833 15 216 3.2 11.3 0.00 0.30 0.00 87 1009.2
20260506093831 17 196 3.2 4.8 0.00 0.03 0.00 82 1011.8
20260506093828 13 90 0.0 3.2 0.00 0.94 0.00 90 1010.0
20260506093826 15 49 3.2 9.7 0.00 3.86 0.00 95 1008.1
20260506093815 16 12 0.0 8.0 0.00 0.05 0.00 77 1011.9
20260506093813 16 35 9.7 12.9 0.00 0.25 0.00 80 1009.4
20260506093344 18 206 0.0 0.0 0.00 8.92 0.00 86 1008.5
20260506093342 21 146 11.3 20.9 0.00 0.00 0.00 59 1012.4
20260506093333 16 196 0.0 6.4 0.00 0.03 0.00 83 1011.9
20260506093331 17 113 4.8 20.9 0.00 0.51 0.00 88 1009.8
20260506093327 15 145 4.8 16.1 0.00 3.86 0.00 95 1008.1
20260506093320 13 90 1.6 3.2 0.03 0.94 0.00 91 1010.0
20260506093315 16 328 6.4 8.0 0.03 0.05 0.00 74 1012.0
20260506093313 16 311 3.2 11.3 0.00 0.25 0.00 81 1009.4
20260506092848 21 207 8.0 27.4 0.00 0.00 0.00 57 1012.5
20260506092836 16 196 3.2 9.7 0.00 0.03 0.00 83 1011.9
20260506092834 16 93 9.7 19.3 0.00 0.51 0.00 88 1009.9
20260506092829 15 153 3.2 11.3 0.00 3.91 0.00 95 1008.0
20260506092819 13 90 0.0 3.2 0.03 0.94 0.00 92 1010.0
20260506092815 16 357 0.0 0.0 0.05 0.05 0.00 76 1012.1
20260506092813 16 312 4.8 12.9 0.00 0.25 0.00 82 1009.5
20260506092348 21 196 6.4 20.9 0.00 0.00 0.00 58 1012.4
20260506092337 16 149 4.8 9.7 0.00 0.03 0.00 83 1011.8
20260506092335 11 52 4.8 8.0 0.00 1.14 0.00 88 1006.8
20260506092331 16 127 11.3 14.5 0.00 0.51 0.00 88 1010.0
20260506092327 13 90 1.6 4.8 0.05 0.94 0.00 92 1010.0
20260506092316 16 338 4.8 6.4 0.00 0.25 0.00 82 1009.5
20260506091850 18 322 0.0 0.0 0.00 9.02 0.00 87 1008.4
20260506091842 21 212 19.3 25.7 0.00 0.00 0.00 58 1012.6
20260506091837 16 107 1.6 19.3 0.00 0.51 0.00 87 1009.9
20260506091832 15 212 6.4 8.0 0.00 4.01 0.00 96 1008.0
20260506091830 16 148 4.8 11.3 0.00 0.03 0.00 82 1011.7
20260506091828 13 92 0.0 0.0 0.05 0.94 0.00 92 1009.9
20260506091815 16 348 0.0 0.0 0.05 0.05 0.00 76 1011.9
20260506091813 15 28 3.2 8.0 0.00 0.28 0.00 82 1009.6
20260506091345 21 189 9.7 19.3 0.00 0.00 0.00 58 1012.5
20260506091339 16 119 4.8 9.7 0.00 0.03 0.00 83 1011.8
20260506091335 15 186 3.2 9.7 0.00 4.04 0.00 96 1008.2
20260506091333 15 210 1.6 3.2 0.00 0.36 0.00 89 1008.9
20260506091322 15 31 6.4 11.3 0.00 0.28 0.00 82 1009.6
20260506091315 16 25 0.0 0.0 0.05 0.05 0.00 80 1011.9
20260506090842 21 195 9.7 20.9 0.00 0.00 0.00 60 1012.2
20260506090838 11 46 4.8 8.0 0.00 1.22 0.00 88 1006.7
20260506090834 16 118 4.8 20.9 0.00 0.51 0.00 88 1009.8
20260506090830 16 161 8.0 9.7 0.00 0.03 0.00 83 1011.7
20260506090827 14 128 4.8 14.5 0.00 4.06 0.00 96 1008.2
20260506090825 12 92 3.2 4.8 0.08 0.94 0.00 93 1010.0
20260506090819 16 41 0.0 0.0 0.05 0.05 0.00 80 1011.9
20260506090816 15 351 1.6 6.4 0.00 0.28 0.00 82 1009.7
20260506090350 18 269 0.0 0.0 0.00 10.39 0.00 91 1008.5
20260506090342 21 205 11.3 14.5 0.00 0.00 0.00 60 1012.2
20260506090335 11 75 4.8 12.9 0.00 1.24 0.00 88 1006.6
20260506090333 15 209 0.0 1.6 0.00 0.36 0.00 89 1008.9
20260506090330 16 121 3.2 9.7 0.00 0.03 0.00 83 1011.8
20260506090326 14 153 3.2 17.7 0.00 4.09 0.00 96 1008.2
20260506090319 12 98 3.2 4.8 0.08 0.94 0.00 93 1010.0
20260506090316 15 9 4.8 12.9 0.00 0.28 0.00 83 1009.7
20260506085842 21 164 6.4 17.7 0.00 0.00 0.00 60 1012.2
20260506085833 14 209 0.0 1.6 0.00 0.36 0.00 89 1009.1
20260506085830 16 103 4.8 9.7 0.00 0.03 0.00 83 1011.7
20260506085827 14 144 4.8 11.3 0.00 4.11 0.00 96 1008.2
20260506085821 15 41 0.0 0.0 0.05 0.05 0.00 81 1011.9
20260506085819 12 136 0.0 0.0 0.08 0.94 0.00 94 1009.9
20260506085813 15 21 8.0 11.3 0.00 0.28 0.00 81 1009.7
20260506085348 21 137 14.5 17.7 0.00 0.00 0.00 61 1012.2
20260506085335 11 60 3.2 12.9 0.00 1.32 0.00 88 1006.7
20260506085333 14 209 0.0 4.8 0.00 0.38 0.00 89 1009.0
20260506085326 14 70 4.8 8.0 0.00 4.11 0.00 96 1008.2
20260506085322 12 136 0.0 0.0 0.10 0.97 0.00 93 1009.9
20260506085318 15 351 0.0 0.0 0.05 0.05 0.00 79 1011.8
20260506085316 15 9 4.8 6.4 0.00 0.28 0.00 83 1009.6
20260506084853 17 279 0.0 3.2 0.00 10.90 0.00 94 1008.6
20260506084846 21 167 8.0 16.1 0.00 0.00 0.00 62 1012.1
20260506084839 14 209 1.6 8.0 0.00 0.38 0.00 90 1009.1
20260506084835 11 127 11.3 11.3 0.00 1.32 0.00 88 1006.7
20260506084833 16 130 8.0 11.3 0.00 0.03 0.00 84 1011.6
20260506084826 14 227 0.0 6.4 0.03 4.11 0.00 96 1008.2
20260506084824 12 136 0.0 0.0 0.10 0.97 0.00 94 1010.0
20260506084822 15 338 0.0 0.0 0.05 0.05 0.00 80 1011.8
20260506084813 15 49 3.2 8.0 0.00 0.28 0.00 83 1009.7
20260506084342 21 173 6.4 16.1 0.00 0.00 0.00 61 1012.1
20260506084339 16 192 1.6 12.9 0.00 0.03 0.00 83 1011.5
20260506084334 16 157 9.7 19.3 0.00 0.53 0.00 89 1009.7
20260506084332 14 173 9.7 16.1 0.03 4.11 0.00 96 1008.0
20260506084330 14 209 4.8 6.4 0.00 0.38 0.00 90 1009.1
20260506084325 12 136 0.0 4.8 0.13 0.97 0.00 94 1009.9
20260506084315 16 351 0.0 0.0 0.05 0.05 0.00 80 1011.9
20260506084313 15 15 3.2 12.9 0.00 0.28 0.00 84 1009.8
20260506083842 21 146 12.9 17.7 0.00 0.00 0.00 61 1012.1
20260506083839 15 164 11.3 14.5 0.00 0.03 0.00 83 1011.6
20260506083831 16 152 14.5 17.7 0.00 0.53 0.00 91 1009.8
20260506083829 14 129 0.0 11.3 0.03 4.14 0.00 96 1008.0
20260506083825 12 142 0.0 4.8 0.13 0.94 0.00 94 1009.9
20260506083815 16 332 0.0 0.0 0.05 0.05 0.00 80 1011.9
20260506083813 15 52 4.8 12.9 0.00 0.28 0.00 83 1009.7
20260506083348 17 198 0.0 3.2 0.00 10.90 0.00 95 1008.5
20260506083342 21 221 8.0 20.9 0.00 0.00 0.00 63 1012.0
20260506083335 11 55 14.5 17.7 0.00 1.37 0.00 88 1006.4
20260506083333 14 202 3.2 4.8 0.00 0.38 0.00 90 1009.1
20260506083330 16 190 3.2 12.9 0.00 0.03 0.00 83 1011.5
20260506083328 12 144 3.2 4.8 0.10 0.94 0.00 94 1009.8
20260506083326 14 121 9.7 9.7 0.03 4.19 0.00 96 1008.0
20260506083315 16 4 0.0 1.6 0.00 0.00 0.00 79 1011.9
20260506083313 15 32 6.4 8.0 0.00 0.28 0.00 84 1009.7
20260506082846 20 162 8.0 14.5 0.00 0.00 0.00 66 1012.1
20260506082839 11 78 8.0 11.3 0.00 1.40 0.00 88 1006.4
20260506082837 16 111 4.8 11.3 0.00 0.56 0.00 92 1009.8
20260506082833 14 202 0.0 0.0 0.00 0.38 0.00 90 1009.1
20260506082830 16 155 4.8 11.3 0.00 0.03 0.00 82 1011.5
20260506082827 14 133 1.6 11.3 0.03 4.29 0.00 96 1008.0
20260506082821 12 160 0.0 0.0 0.15 0.94 0.00 94 1009.6
20260506082819 15 332 4.8 6.4 0.00 0.28 0.00 85 1009.8
20260506082816 16 6 0.0 0.0 0.00 0.00 0.00 77 1011.8
20260506082349 20 194 8.0 20.9 0.00 0.00 0.00 66 1012.1
20260506082338 11 77 11.3 12.9 0.00 1.40 0.00 88 1006.4
20260506082334 16 90 4.8 14.5 0.00 0.56 0.00 92 1009.8
20260506082330 15 154 3.2 12.9 0.00 0.05 0.00 82 1011.5
20260506082326 14 154 8.0 11.3 0.03 4.52 0.00 96 1008.0
20260506082321 16 77 0.0 0.0 0.00 0.00 0.00 77 1011.8
20260506082319 15 304 3.2 6.4 0.00 0.28 0.00 85 1009.9
20260506081845 16 258 0.0 0.0 0.00 11.07 0.00 95 1008.5
20260506081842 20 162 6.4 17.7 0.00 0.00 0.00 66 1012.2
20260506081838 11 25 9.7 12.9 0.00 1.42 0.00 88 1006.3
20260506081833 14 202 0.0 0.0 0.00 0.38 0.00 91 1009.0
20260506081831 16 113 9.7 14.5 0.00 0.61 0.00 93 1009.8
20260506081826 14 170 1.6 27.4 0.03 4.67 0.00 96 1008.0
20260506081822 12 136 0.0 0.0 0.18 0.91 0.00 94 1009.6
20260506081816 16 319 0.0 0.0 0.00 0.00 0.00 76 1011.6
20260506081345 20 158 8.0 19.3 0.00 0.00 0.00 68 1012.2
20260506081337 16 106 4.8 11.3 0.00 0.64 0.00 93 1009.8
20260506081335 11 78 6.4 16.1 0.00 1.45 0.00 88 1006.2
20260506081333 15 142 8.0 11.3 0.00 0.05 0.00 82 1011.6
20260506081319 12 127 0.0 0.0 0.18 0.89 0.00 94 1009.6
20260506081316 16 316 0.0 6.4 0.00 0.00 0.00 75 1011.6
20260506081313 15 319 4.8 6.4 0.00 0.28 0.00 87 1009.9
20260506080846 19 215 4.8 12.9 0.00 0.00 0.00 69 1012.3
20260506080840 15 115 9.7 14.5 0.00 0.64 0.00 93 1009.8
20260506080838 11 79 12.9 16.1 0.00 1.50 0.00 88 1006.2
20260506080830 14 202 0.0 0.0 0.00 0.41 0.00 91 1009.2
20260506080819 12 117 0.0 0.0 0.18 0.89 0.00 94 1009.6
20260506080816 16 23 3.2 8.0 0.00 0.00 0.00 77 1011.7
20260506080813 15 328 4.8 6.4 0.00 0.28 0.00 87 1009.8
20260506080345 16 260 0.0 4.8 0.00 11.15 0.00 96 1008.5
20260506080342 19 160 3.2 17.7 0.00 0.00 0.00 69 1012.2
20260506080338 11 42 8.0 14.5 0.00 1.52 0.00 88 1006.0
20260506080332 16 132 4.8 11.3 0.00 0.08 0.00 81 1011.6
20260506080330 14 202 0.0 0.0 0.00 0.41 0.00 91 1009.2
20260506080322 16 294 4.8 9.7 0.00 0.00 0.00 76 1011.8
20260506080319 12 113 0.0 0.0 0.20 0.86 0.00 94 1009.6
20260506080313 14 309 4.8 6.4 0.00 0.28 0.00 87 1009.9
20260506073345 16 147 0.0 0.0 0.00 11.18 0.00 96 1008.5
20260506073342 18 224 4.8 16.1 0.00 0.00 0.00 72 1012.1
20260506073340 15 133 12.9 16.1 0.00 0.89 0.00 95 1009.9
20260506073333 13 202 0.0 0.0 0.00 0.43 0.00 93 1009.2
20260506073331 16 80 12.9 14.5 0.00 0.13 0.00 84 1011.4
20260506073319 17 306 0.0 1.6 0.00 0.00 0.00 73 1011.7
20260506073313 14 115 1.6 3.2 0.00 0.28 0.00 89 1010.1
20260506072848 18 181 4.8 17.7 0.00 0.00 0.00 73 1012.0
20260506072838 12 5 9.7 11.3 0.05 1.57 0.00 88 1006.2
20260506072833 13 202 0.0 0.0 0.00 0.43 0.00 93 1009.2
20260506072830 16 103 3.2 14.5 0.00 0.13 0.00 83 1011.5
20260506072826 13 220 9.7 11.3 0.00 4.80 0.00 96 1007.8
20260506072822 16 341 0.0 0.0 0.00 0.00 0.00 70 1011.8
20260506072820 12 109 0.0 0.0 0.20 0.76 0.00 94 1009.9
20260506072344 18 166 9.7 16.1 0.00 0.00 0.00 73 1012.2
20260506072337 15 115 11.3 17.7 0.00 0.94 0.00 95 1010.0
20260506072330 13 202 0.0 0.0 0.00 0.43 0.00 93 1009.2
20260506072322 12 109 0.0 0.0 0.20 0.74 0.00 94 1009.9
20260506072319 16 312 0.0 6.4 0.00 0.00 0.00 72 1011.8
20260506071845 16 263 0.0 0.0 0.00 11.18 0.00 96 1008.4
20260506071843 18 144 8.0 14.5 0.00 0.00 0.00 74 1012.2
20260506071837 15 117 6.4 16.1 0.00 0.99 0.00 96 1009.9
20260506071835 11 32 4.8 12.9 0.08 1.57 0.00 88 1006.1
20260506071832 13 37 1.6 3.2 0.00 4.80 0.00 96 1007.8
20260506071830 13 202 0.0 0.0 0.00 0.43 0.00 93 1009.3
20260506071820 12 109 0.0 0.0 0.18 0.74 0.00 94 1010.0
20260506071816 16 319 3.2 4.8 0.00 0.00 0.00 73 1011.8
20260506071813 13 193 1.6 8.0 0.03 0.28 0.00 90 1010.2
20260506071341 18 184 4.8 14.5 0.00 0.00 0.00 75 1012.2
20260506071335 11 25 4.8 12.9 0.08 1.57 0.00 88 1006.3
20260506071333 15 69 6.4 11.3 0.00 0.13 0.00 83 1011.5
20260506071331 15 101 6.4 17.7 0.00 1.02 0.00 96 1009.9
20260506071326 13 37 0.0 6.4 0.00 4.80 0.00 96 1007.7
20260506071322 16 22 1.6 6.4 0.00 0.00 0.00 75 1011.8
20260506071319 12 108 0.0 0.0 0.15 0.69 0.00 94 1010.1
20260506071316 13 186 1.6 8.0 0.03 0.28 0.00 90 1010.3
20260506070844 18 219 3.2 11.3 0.00 0.00 0.00 75 1012.3
20260506070839 11 39 8.0 11.3 0.08 1.57 0.00 88 1006.4
20260506070833 15 79 6.4 12.9 0.00 0.13 0.00 83 1011.6
20260506070831 15 90 6.4 17.7 0.00 1.04 0.00 97 1009.8
20260506070826 13 29 4.8 6.4 0.00 4.83 0.00 96 1007.7
20260506070819 12 166 0.0 0.0 0.18 0.69 0.00 94 1010.1
20260506070816 13 186 6.4 11.3 0.03 0.28 0.00 90 1010.3
20260506070348 18 158 9.7 14.5 0.00 0.00 0.00 76 1012.3
20260506070345 16 63 0.0 3.2 0.10 11.23 0.00 96 1008.3
20260506070340 15 123 6.4 11.3 0.00 1.07 0.00 97 1009.8
20260506070335 11 343 3.2 8.0 0.13 1.57 0.00 88 1006.5
20260506070333 13 202 0.0 0.0 0.05 0.43 0.00 94 1009.4
20260506070330 16 139 1.6 8.0 0.00 0.13 0.00 84 1011.7
20260506070327 13 134 3.2 3.2 0.00 4.85 0.00 96 1007.7
20260506070322 12 166 0.0 0.0 0.13 0.64 0.00 94 1010.0
20260506070319 16 319 0.0 6.4 0.00 0.00 0.00 75 1011.7
20260506070313 14 175 9.7 9.7 0.03 0.28 0.00 90 1010.4
20260506062341 17 160 9.7 17.7 0.00 0.00 0.00 81 1012.1
20260506062335 10 28 8.0 8.0 0.30 1.52 0.00 88 1006.7
20260506062333 13 203 0.0 0.0 0.03 0.41 0.00 94 1009.9
20260506062331 15 109 3.2 9.7 0.00 1.17 0.00 97 1010.4
20260506062327 12 248 1.6 3.2 0.00 5.31 0.00 96 1007.5
20260506062325 12 155 0.0 0.0 0.03 0.53 0.00 94 1009.8
20260506062319 14 179 8.0 11.3 0.00 0.25 0.00 89 1010.5
20260506062316 17 316 0.0 0.0 0.00 0.00 0.00 69 1011.8
20260506061845 15 301 0.0 0.0 0.48 11.20 0.00 96 1008.3
20260506061841 17 165 9.7 17.7 0.00 0.00 0.00 81 1012.0
20260506061836 10 13 3.2 11.3 0.33 1.50 0.00 88 1006.7
20260506061831 14 115 6.4 11.3 0.00 1.17 0.00 97 1010.3
20260506061819 12 153 0.0 0.0 0.03 0.53 0.00 94 1009.8
20260506061816 17 310 0.0 0.0 0.00 0.00 0.00 70 1011.9
20260506061813 14 191 4.8 11.3 0.00 0.25 0.00 89 1010.5
20260506061345 17 184 6.4 19.3 0.00 0.00 0.00 82 1012.0
20260506061341 16 74 1.6 4.8 0.00 0.15 0.00 82 1011.5
20260506061338 10 24 3.2 9.7 0.36 1.50 0.00 88 1006.7
20260506061334 14 82 3.2 11.3 0.00 1.19 0.00 97 1010.3
20260506061332 12 245 1.6 4.8 0.00 5.31 0.00 96 1007.6
20260506061330 13 203 0.0 0.0 0.00 0.38 0.00 94 1010.0
20260506061319 17 311 0.0 0.0 0.00 0.00 0.00 71 1011.9
20260506061315 14 175 3.2 12.9 0.00 0.25 0.00 88 1010.3
20260506060841 17 144 11.3 14.5 0.00 0.00 0.00 82 1011.9
20260506060838 10 5 3.2 11.3 0.41 1.50 0.00 88 1006.8
20260506060834 14 111 9.7 11.3 0.00 1.19 0.00 97 1010.3
20260506060830 16 74 1.6 3.2 0.00 0.15 0.00 83 1011.6
20260506060826 12 246 1.6 3.2 0.00 5.31 0.00 96 1007.6
20260506060816 17 311 0.0 0.0 0.00 0.00 0.00 72 1011.8
20260506060813 14 182 9.7 12.9 0.00 0.25 0.00 87 1010.5
20260506060351 15 301 0.0 0.0 0.38 11.10 0.00 96 1008.4
20260506060341 17 169 12.9 16.1 0.00 0.00 0.00 83 1011.9
20260506060338 10 0 4.8 12.9 0.38 1.45 0.00 88 1006.9
20260506060334 14 113 3.2 9.7 0.00 1.22 0.00 97 1010.2
20260506060330 15 74 1.6 4.8 0.00 0.15 0.00 83 1011.6
20260506060325 16 310 0.0 0.0 0.00 0.00 0.00 72 1011.8
20260506060319 12 177 4.8 8.0 0.00 0.51 0.00 94 1009.9
20260506060313 14 193 4.8 8.0 0.00 0.25 0.00 87 1010.2
20260506051341 16 117 8.0 12.9 0.00 0.00 0.00 85 1011.9
20260506051335 10 57 3.2 6.4 0.23 1.12 0.00 87 1006.7
20260506051333 13 203 0.0 3.2 0.00 0.36 0.00 94 1009.5
20260506051331 14 115 4.8 9.7 0.08 1.22 0.00 97 1010.7
20260506051329 11 125 0.0 0.0 0.00 0.48 0.00 95 1010.2
20260506051316 15 162 0.0 4.8 0.00 0.00 0.00 75 1011.5
20260506051313 13 313 1.6 6.4 0.00 0.25 0.00 90 1010.2
20260506050847 16 155 6.4 11.3 0.00 0.00 0.00 85 1011.8
20260506050842 10 350 1.6 4.8 0.18 1.07 0.00 87 1006.7
20260506050837 14 119 6.4 9.7 0.08 1.22 0.00 97 1010.9
20260506050833 14 236 8.0 12.9 0.00 0.15 0.00 87 1011.6
20260506050830 13 203 0.0 3.2 0.00 0.36 0.00 94 1009.6
20260506050823 11 125 0.0 0.0 0.00 0.48 0.00 95 1010.0
20260506050816 15 138 0.0 0.0 0.00 0.00 0.00 76 1011.5
20260506050813 13 313 3.2 4.8 0.00 0.25 0.00 91 1010.1
20260506050345 15 301 0.0 0.0 1.14 10.72 0.00 96 1008.4
20260506050341 16 155 8.0 14.5 0.00 0.00 0.00 86 1011.8
20260506050336 10 55 0.0 1.6 0.15 1.04 0.00 87 1006.7
20260506050334 14 232 1.6 4.8 0.00 0.15 0.00 87 1011.5
20260506050331 14 114 4.8 9.7 0.08 1.22 0.00 97 1011.0
20260506050325 11 125 0.0 0.0 0.00 0.48 0.00 95 1010.0
20260506050322 15 218 0.0 3.2 0.00 0.00 0.00 76 1011.4
20260506050313 13 313 1.6 4.8 0.00 0.25 0.00 91 1010.0
20260506044854 15 301 0.0 0.0 1.40 10.67 0.00 96 1008.3
20260506044843 16 142 3.2 9.7 0.00 0.00 0.00 86 1011.8
20260506044836 11 22 4.8 6.4 0.08 0.97 0.00 85 1006.3
20260506044831 13 115 6.4 12.9 0.08 1.19 0.00 97 1010.6
20260506044828 11 125 0.0 0.0 0.00 0.48 0.00 95 1009.7
20260506044816 15 141 4.8 11.3 0.00 0.00 0.00 76 1011.4
20260506044812 13 35 1.6 1.6 0.00 0.25 0.00 91 1010.0
20260506044347 16 164 3.2 8.0 0.00 0.00 0.00 86 1011.8
20260506044339 11 24 3.2 6.4 0.03 0.94 0.00 85 1006.3
20260506044337 13 102 4.8 12.9 0.08 1.17 0.00 97 1010.8
20260506044333 12 203 0.0 1.6 0.00 0.36 0.00 94 1009.3
20260506044327 12 34 0.0 4.8 0.00 6.32 0.00 96 1008.1
20260506044319 11 125 0.0 0.0 0.00 0.48 0.00 95 1009.7
20260506044316 15 125 0.0 9.7 0.00 0.00 0.00 76 1011.5
20260506044313 13 35 0.0 6.4 0.00 0.25 0.00 91 1010.2
20260506043846 16 159 1.6 9.7 0.00 0.00 0.00 86 1011.7
20260506043843 11 340 4.8 6.4 0.03 0.94 0.00 85 1006.2
20260506043834 12 41 4.8 4.8 0.00 6.32 0.00 96 1008.1
20260506043830 12 203 0.0 1.6 0.00 0.36 0.00 94 1009.4
20260506043825 11 125 0.0 0.0 0.00 0.48 0.00 95 1009.9
20260506043822 15 127 9.7 11.3 0.00 0.00 0.00 76 1011.4
20260506043816 13 35 4.8 4.8 0.00 0.25 0.00 91 1010.0
20260506043345 15 301 0.0 0.0 1.52 10.46 0.00 96 1008.4
20260506043336 11 329 4.8 8.0 0.00 0.89 0.00 84 1006.2
20260506043334 13 103 4.8 11.3 0.08 1.14 0.00 97 1010.9
20260506043327 12 28 3.2 4.8 0.00 6.32 0.00 96 1008.1
20260506043325 11 125 0.0 0.0 0.00 0.48 0.00 95 1009.9
20260506043322 15 127 4.8 9.7 0.00 0.00 0.00 76 1011.3
20260506043313 13 95 0.0 1.6 0.00 0.25 0.00 91 1010.1
20260506042843 16 162 1.6 6.4 0.00 0.00 0.00 86 1011.6
20260506042836 11 327 3.2 4.8 0.00 0.89 0.00 84 1006.1
20260506042834 13 72 1.6 14.5 0.13 1.14 0.00 96 1010.7
20260506042830 12 203 1.6 3.2 0.00 0.36 0.00 94 1009.4
20260506042828 11 125 0.0 0.0 0.00 0.48 0.00 95 1009.9
20260506042819 13 95 0.0 1.6 0.00 0.25 0.00 91 1010.1
20260506042345 11 339 3.2 3.2 0.00 0.89 0.00 83 1006.2
20260506042341 16 152 1.6 11.3 0.00 0.00 0.00 85 1011.7
20260506042331 13 97 4.8 11.3 0.18 1.14 0.00 96 1010.7
20260506042328 11 125 0.0 0.0 0.00 0.48 0.00 95 1010.0
20260506042322 15 117 0.0 11.3 0.00 0.00 0.00 74 1011.2
20260506042319 13 95 0.0 1.6 0.00 0.25 0.00 91 1010.0
20260506041848 15 301 0.0 0.0 2.24 10.26 0.00 96 1008.2
20260506041836 11 338 1.6 6.4 0.00 0.89 0.00 83 1006.1
20260506041831 13 93 0.0 4.8 0.18 1.12 0.00 96 1010.8
20260506041820 11 125 0.0 0.0 0.00 0.48 0.00 95 1009.9
20260506041816 15 165 6.4 8.0 0.00 0.00 0.00 73 1011.1
20260506041814 13 248 3.2 4.8 0.00 0.15 0.00 88 1011.5
20260506041342 16 133 3.2 9.7 0.00 0.00 0.00 85 1011.4
20260506041336 11 305 3.2 6.4 0.00 0.89 0.00 84 1006.0
20260506041331 13 93 1.6 4.8 0.18 1.12 0.00 97 1010.7
20260506041327 12 250 1.6 4.8 0.00 6.35 0.00 95 1008.4
20260506041319 11 125 0.0 0.0 0.00 0.48 0.00 95 1010.1
20260506041316 15 133 4.8 6.4 0.00 0.00 0.00 73 1011.1
20260506041313 13 219 3.2 4.8 0.00 0.25 0.00 91 1010.1
20260506040842 11 321 3.2 6.4 0.00 0.89 0.00 84 1005.9
20260506040831 13 100 1.6 6.4 0.15 1.12 0.00 96 1010.7
20260506040823 11 125 0.0 0.0 0.00 0.48 0.00 95 1010.2
20260506040816 16 162 6.4 6.4 0.00 0.00 0.00 72 1011.2
20260506040348 16 140 4.8 8.0 0.00 0.00 0.00 85 1011.5
20260506040337 11 328 3.2 6.4 0.00 0.89 0.00 84 1005.9
20260506040331 13 78 3.2 11.3 0.18 1.12 0.00 96 1010.6
20260506040329 11 125 0.0 0.0 0.00 0.48 0.00 95 1010.2
20260506040316 16 166 0.0 0.0 0.00 0.00 0.00 73 1011.2
20260506040312 13 217 3.2 4.8 0.00 0.25 0.00 91 1010.2
20260506035852 16 137 8.0 9.7 0.00 0.00 0.00 85 1011.5
20260506035836 11 327 4.8 4.8 0.00 0.89 0.00 84 1005.8
20260506035834 13 109 4.8 9.7 0.20 1.12 0.00 96 1010.6
20260506035822 11 125 0.0 0.0 0.00 0.48 0.00 95 1010.2
20260506035816 16 166 0.0 0.0 0.00 0.00 0.00 73 1011.2
20260506035813 13 217 3.2 6.4 0.00 0.25 0.00 91 1010.4
20260506035341 16 135 4.8 9.7 0.00 0.00 0.00 85 1011.4
20260506035337 13 86 6.4 11.3 0.23 1.09 0.00 96 1010.6
20260506035333 12 203 0.0 0.0 0.00 0.36 0.00 94 1009.4
20260506035330 12 62 0.0 3.2 0.00 6.35 0.00 96 1008.2
20260506035322 11 125 0.0 0.0 0.00 0.48 0.00 95 1010.3
20260506035319 13 163 1.6 3.2 0.00 0.25 0.00 91 1010.3
20260506034851 15 236 0.0 0.0 2.72 9.86 0.00 96 1008.2
20260506034841 16 135 6.4 9.7 0.00 0.00 0.00 85 1011.4
20260506034837 13 103 6.4 9.7 0.28 1.09 0.00 96 1010.6
20260506034828 12 56 1.6 1.6 0.00 6.35 0.00 95 1008.2
20260506034819 11 125 0.0 0.0 0.00 0.48 0.00 95 1010.3
20260506034816 16 37 0.0 0.0 0.00 0.00 0.00 73 1011.3
20260506034347 16 159 9.7 11.3 0.00 0.00 0.00 85 1011.4
20260506034345 11 323 4.8 11.3 0.00 0.89 0.00 85 1005.7
20260506034334 13 98 4.8 6.4 0.28 1.07 0.00 96 1010.5
20260506034330 12 203 0.0 0.0 0.00 0.36 0.00 94 1009.6
20260506034322 16 37 0.0 0.0 0.00 0.00 0.00 73 1011.2
20260506034319 11 125 0.0 0.0 0.00 0.48 0.00 95 1010.4
20260506034312 13 178 4.8 6.4 0.00 0.25 0.00 91 1010.3
20260506033847 16 175 3.2 9.7 0.00 0.00 0.00 85 1011.4
20260506033839 11 330 4.8 8.0 0.00 0.89 0.00 85 1005.8
20260506033831 13 92 3.2 9.7 0.30 1.07 0.00 96 1010.7
20260506033822 13 216 1.6 4.8 0.00 0.25 0.00 91 1010.5
20260506033816 16 37 0.0 0.0 0.00 0.00 0.00 73 1011.3
20260506033345 15 237 0.0 0.0 2.46 9.78 0.00 96 1008.2
20260506033341 16 164 4.8 14.5 0.00 0.00 0.00 85 1011.4
20260506033339 11 325 6.4 6.4 0.00 0.89 0.00 86 1006.2
20260506033332 13 106 4.8 6.4 0.28 1.04 0.00 96 1010.8
20260506033330 12 29 6.4 6.4 0.00 6.38 0.00 96 1008.4
20260506033319 11 125 0.0 0.0 0.00 0.48 0.00 95 1010.4
20260506033316 13 190 1.6 4.8 0.00 0.25 0.00 91 1010.8
20260506032846 16 140 4.8 11.3 0.00 0.00 0.00 85 1011.4
20260506032837 11 334 3.2 4.8 0.00 0.89 0.00 86 1006.2
20260506032833 12 203 0.0 0.0 0.00 0.36 0.00 94 1009.9
20260506032831 13 103 3.2 6.4 0.25 1.02 0.00 96 1010.9
20260506032827 12 157 0.0 3.2 0.00 6.38 0.00 95 1008.7
20260506032821 13 223 3.2 6.4 0.00 0.25 0.00 91 1010.8
20260506032819 11 125 0.0 3.2 0.00 0.48 0.00 95 1010.5
20260506032345 16 151 8.0 12.9 0.00 0.00 0.00 85 1011.4
20260506032339 11 315 4.8 6.4 0.00 0.89 0.00 87 1006.4
20260506032334 13 123 1.6 8.0 0.20 0.97 0.00 96 1010.9
20260506032330 12 203 0.0 0.0 0.00 0.36 0.00 94 1010.0
20260506032328 12 158 3.2 4.8 0.00 6.38 0.00 95 1008.7
20260506032319 11 119 0.0 0.0 0.00 0.48 0.00 95 1010.5
20260506032316 16 22 0.0 4.8 0.00 0.00 0.00 72 1011.2
20260506031845 15 235 0.0 0.0 1.91 8.97 0.00 96 1008.3
20260506031841 16 130 4.8 11.3 0.00 0.00 0.00 85 1011.3
20260506031836 11 292 1.6 4.8 0.00 0.89 0.00 87 1006.5
20260506031833 12 203 0.0 0.0 0.00 0.36 0.00 94 1010.1
20260506031831 13 121 8.0 9.7 0.18 0.94 0.00 96 1010.7
20260506031822 11 119 0.0 0.0 0.00 0.48 0.00 95 1010.7
20260506031820 16 332 0.0 4.8 0.00 0.00 0.00 72 1011.3
20260506031812 13 221 4.8 4.8 0.00 0.25 0.00 91 1010.8
20260506031346 16 128 1.6 9.7 0.00 0.00 0.00 85 1011.4
20260506031336 11 292 3.2 4.8 0.00 0.89 0.00 87 1006.7
20260506031334 13 129 4.8 6.4 0.18 0.94 0.00 96 1010.7
20260506031327 12 32 0.0 1.6 0.00 6.38 0.00 95 1008.5
20260506031325 11 117 0.0 0.0 0.00 0.48 0.00 95 1010.7
20260506031322 13 234 3.2 4.8 0.00 0.25 0.00 91 1010.9
20260506031319 16 344 0.0 0.0 0.00 0.00 0.00 72 1011.3
20260506030845 11 292 4.8 6.4 0.00 0.89 0.00 87 1006.9
20260506030841 16 148 3.2 4.8 0.00 0.00 0.00 85 1011.4
20260506030834 13 79 3.2 6.4 0.18 0.94 0.00 96 1010.6
20260506030830 12 203 0.0 0.0 0.00 0.36 0.00 94 1010.1
20260506030822 11 116 0.0 0.0 0.00 0.48 0.00 95 1010.7
20260506030820 15 346 0.0 4.8 0.00 0.00 0.00 73 1011.4
20260506030813 13 232 4.8 6.4 0.00 0.25 0.00 91 1010.9
20260506030345 15 80 0.0 0.0 1.22 8.28 0.00 96 1008.3
20260506030339 11 284 4.8 4.8 0.00 0.89 0.00 87 1007.0
20260506030336 12 203 0.0 0.0 0.00 0.36 0.00 94 1010.2
20260506030334 13 80 3.2 6.4 0.18 0.94 0.00 96 1010.8
20260506030328 12 32 3.2 4.8 0.00 6.38 0.00 95 1008.6
20260506030319 15 43 4.8 8.0 0.00 0.00 0.00 76 1011.4
20260506025843 11 284 1.6 4.8 0.00 0.89 0.00 87 1006.9
20260506025841 16 163 1.6 8.0 0.00 0.00 0.00 85 1011.5
20260506025837 13 77 3.2 6.4 0.13 0.89 0.00 96 1010.9
20260506025833 12 203 0.0 0.0 0.00 0.36 0.00 94 1010.3
20260506025827 12 244 1.6 4.8 0.00 6.38 0.00 95 1008.6
20260506025819 11 115 0.0 0.0 0.00 0.48 0.00 95 1010.6
20260506025817 15 60 6.4 8.0 0.00 0.00 0.00 74 1011.3
20260506025813 13 179 3.2 4.8 0.00 0.25 0.00 91 1011.1
20260506025347 16 186 3.2 8.0 0.00 0.00 0.00 85 1011.5
20260506025336 11 284 3.2 4.8 0.00 0.89 0.00 87 1007.0
20260506025334 13 91 4.8 9.7 0.08 0.84 0.00 96 1011.0
20260506025327 12 244 3.2 4.8 0.00 6.38 0.00 95 1008.6
20260506025319 13 141 1.6 4.8 0.00 0.25 0.00 91 1011.1
20260506025317 16 1 3.2 6.4 0.00 0.00 0.00 72 1011.3
20260506024848 15 81 0.0 0.0 0.74 7.80 0.00 95 1008.5
20260506024842 16 194 3.2 9.7 0.00 0.00 0.00 85 1011.5
20260506024839 11 284 3.2 4.8 0.00 0.89 0.00 87 1006.9
20260506024834 13 120 3.2 9.7 0.05 0.81 0.00 96 1011.0
20260506024830 12 243 1.6 4.8 0.00 6.40 0.00 95 1008.6
20260506024819 11 115 0.0 0.0 0.00 0.48 0.00 95 1010.7
20260506024817 16 316 6.4 6.4 0.00 0.00 0.00 73 1011.3
20260506024341 16 169 4.8 11.3 0.00 0.00 0.00 85 1011.4
20260506024339 11 284 4.8 4.8 0.00 0.89 0.00 87 1006.9
20260506024333 12 203 0.0 0.0 0.00 0.36 0.00 94 1010.4
20260506024327 12 245 3.2 8.0 0.00 6.40 0.00 95 1008.5
20260506024319 11 116 0.0 0.0 0.00 0.48 0.00 95 1010.7
20260506024317 15 322 0.0 1.6 0.00 0.00 0.00 74 1011.4
20260506024312 13 175 1.6 4.8 0.00 0.25 0.00 91 1011.1
20260506023842 16 156 3.2 12.9 0.00 0.00 0.00 85 1011.3
20260506023836 11 284 3.2 4.8 0.00 0.89 0.00 87 1007.0
20260506023834 13 94 4.8 11.3 0.00 0.74 0.00 96 1011.0
20260506023830 12 255 1.6 4.8 0.00 6.43 0.00 95 1008.5
20260506023823 15 9 1.6 4.8 0.00 0.00 0.00 75 1011.6
20260506023819 11 116 0.0 0.0 0.00 0.48 0.00 95 1010.8
20260506023812 13 175 1.6 3.2 0.00 0.25 0.00 91 1011.2
20260506023345 15 294 0.0 0.0 0.46 7.52 0.00 95 1008.7
20260506023343 11 284 3.2 4.8 0.00 0.89 0.00 88 1007.1
20260506023334 13 61 6.4 14.5 0.00 0.74 0.00 96 1011.1
20260506023331 12 34 3.2 3.2 0.00 6.43 0.00 95 1008.6
20260506023319 11 116 0.0 0.0 0.00 0.48 0.00 95 1010.7
20260506023317 15 27 0.0 1.6 0.00 0.00 0.00 75 1011.6
20260506022842 16 162 4.8 9.7 0.00 0.00 0.00 84 1011.2
20260506022836 11 284 1.6 4.8 0.00 0.89 0.00 88 1007.1
20260506022834 13 89 4.8 9.7 0.00 0.74 0.00 96 1011.1
20260506022828 11 119 0.0 0.0 0.00 0.48 0.00 95 1010.6
20260506022817 16 325 0.0 0.0 0.00 0.00 0.00 75 1011.6
20260506022815 13 67 3.2 4.8 0.00 0.25 0.00 91 1011.0
20260506022344 16 174 6.4 14.5 0.00 0.00 0.00 84 1011.3
20260506022339 11 284 3.2 4.8 0.00 0.89 0.00 88 1007.1
20260506022331 13 90 6.4 11.3 0.00 0.74 0.00 96 1011.0
20260506022323 16 322 0.0 0.0 0.00 0.00 0.00 75 1011.7
20260506022319 11 175 0.0 0.0 0.00 0.48 0.00 95 1010.6
20260506021856 15 118 0.0 0.0 0.05 7.11 0.00 95 1008.2
20260506021841 16 162 6.4 9.7 0.00 0.00 0.00 84 1011.3
20260506021839 11 294 1.6 4.8 0.00 0.89 0.00 88 1007.1
20260506021837 12 203 0.0 0.0 0.00 0.36 0.00 93 1010.3
20260506021834 13 77 4.8 12.9 0.00 0.74 0.00 96 1011.1
20260506021824 11 176 0.0 0.0 0.00 0.48 0.00 95 1010.6
20260506021817 16 337 0.0 1.6 0.00 0.00 0.00 75 1011.8
20260506021813 13 187 4.8 8.0 0.00 0.25 0.00 91 1010.9
20260506021342 16 155 3.2 11.3 0.00 0.00 0.00 84 1011.3
20260506021337 12 203 0.0 0.0 0.00 0.36 0.00 93 1010.3
20260506021333 13 65 4.8 12.9 0.00 0.74 0.00 96 1011.0
20260506021329 11 176 0.0 0.0 0.00 0.48 0.00 95 1010.6
20260506021320 16 19 0.0 0.0 0.00 0.00 0.00 75 1011.8
20260506021317 13 221 3.2 4.8 0.00 0.25 0.00 91 1010.8
20260506020844 16 186 6.4 11.3 0.00 0.00 0.00 84 1011.3
20260506020839 13 107 3.2 12.9 0.00 0.74 0.00 95 1011.1
20260506020834 12 203 0.0 0.0 0.00 0.36 0.00 93 1010.4
20260506020820 16 355 0.0 0.0 0.00 0.00 0.00 76 1011.9
20260506020814 13 221 3.2 4.8 0.00 0.25 0.00 91 1010.8
20260506020349 15 118 0.0 0.0 0.03 7.14 0.00 95 1008.5
20260506020344 16 158 8.0 12.9 0.00 0.00 0.00 84 1011.4
20260506020340 11 294 1.6 4.8 0.00 0.89 0.00 88 1007.2
20260506020337 13 74 3.2 8.0 0.00 0.74 0.00 95 1011.3
20260506020333 12 203 0.0 0.0 0.00 0.36 0.00 94 1010.2
20260506020319 11 176 0.0 0.0 0.00 0.48 0.00 94 1010.8
20260506020315 16 168 0.0 0.0 0.00 0.00 0.00 76 1012.0
20260506020312 13 221 1.6 1.6 0.00 0.25 0.00 91 1010.8
20260506015844 16 143 6.4 14.5 0.00 0.00 0.00 84 1011.4
20260506015837 13 119 3.2 9.7 0.00 0.74 0.00 95 1011.4
20260506015832 11 294 1.6 4.8 0.00 0.89 0.00 88 1007.2
20260506015830 12 203 0.0 1.6 0.00 0.36 0.00 94 1010.2
20260506015828 12 257 0.0 0.0 0.00 6.43 0.00 95 1008.7
20260506015822 11 178 0.0 0.0 0.00 0.48 0.00 95 1010.8
20260506015815 16 167 0.0 0.0 0.00 0.00 0.00 76 1012.1
20260506015812 13 221 0.0 1.6 0.00 0.25 0.00 91 1010.7
20260506015341 16 158 6.4 12.9 0.00 0.00 0.00 84 1011.5
20260506015332 11 294 1.6 3.2 0.00 0.89 0.00 88 1007.2
20260506015330 12 203 0.0 3.2 0.00 0.36 0.00 93 1010.2
20260506015319 11 181 0.0 0.0 0.00 0.48 0.00 95 1010.9
20260506015313 13 221 0.0 1.6 0.00 0.25 0.00 91 1010.9
20260506014844 16 113 8.0 12.9 0.00 0.00 0.00 84 1011.5
20260506014838 11 294 3.2 4.8 0.00 0.89 0.00 88 1007.4
20260506014834 13 98 4.8 9.7 0.00 0.74 0.00 95 1011.3
20260506014822 11 181 0.0 0.0 0.00 0.48 0.00 95 1011.0
20260506014812 16 167 0.0 0.0 0.00 0.00 0.00 75 1012.2
20260506014341 16 172 1.6 11.3 0.00 0.00 0.00 84 1011.6
20260506014337 13 121 3.2 9.7 0.00 0.74 0.00 95 1011.4
20260506014333 12 203 0.0 1.6 0.00 0.36 0.00 94 1010.2
20260506014327 12 255 0.0 4.8 0.00 6.43 0.00 95 1008.8
20260506014322 11 181 0.0 0.0 0.00 0.48 0.00 95 1011.0
20260506014318 16 168 0.0 0.0 0.00 0.00 0.00 75 1012.2
20260506014315 13 221 1.6 3.2 0.00 0.25 0.00 91 1011.3
20260506013841 16 160 3.2 11.3 0.00 0.00 0.00 84 1011.5
20260506013833 12 255 1.6 3.2 0.03 6.43 0.00 95 1008.8
20260506013831 13 109 4.8 6.4 0.00 0.74 0.00 95 1011.5
20260506013822 11 181 0.0 0.0 0.00 0.48 0.00 95 1010.9
20260506013815 16 160 0.0 0.0 0.00 0.00 0.00 75 1012.1
20260506013813 13 221 1.6 6.4 0.00 0.25 0.00 91 1011.4
20260506013348 15 118 0.0 0.0 0.33 7.16 0.00 95 1009.0
20260506013341 16 153 1.6 9.7 0.00 0.00 0.00 84 1011.6
20260506013336 11 294 3.2 4.8 0.00 0.89 0.00 88 1007.3
20260506013331 13 120 4.8 6.4 0.00 0.74 0.00 95 1011.6
20260506013327 12 255 1.6 6.4 0.03 6.43 0.00 95 1008.8
20260506013324 11 181 0.0 0.0 0.00 0.48 0.00 95 1010.9
20260506013321 16 161 0.0 0.0 0.00 0.00 0.00 76 1012.1
20260506013312 13 222 4.8 8.0 0.00 0.25 0.00 91 1011.4
20260506012850 16 154 3.2 11.3 0.00 0.00 0.00 84 1011.7
20260506012834 13 121 3.2 4.8 0.00 0.74 0.00 95 1011.6
20260506012832 11 294 3.2 4.8 0.00 0.89 0.00 88 1007.3
20260506012830 12 203 0.0 0.0 0.00 0.36 0.00 94 1010.5
20260506012827 12 229 3.2 6.4 0.03 6.43 0.00 95 1009.2
20260506012822 11 181 0.0 0.0 0.00 0.48 0.00 95 1010.9
20260506012818 16 160 0.0 0.0 0.00 0.00 0.00 76 1012.2
20260506012815 13 248 3.2 6.4 0.00 0.25 0.00 91 1011.4
20260506012341 16 148 6.4 11.3 0.00 0.00 0.00 84 1011.6
20260506012338 15 249 0.0 3.2 0.00 0.15 0.00 88 1011.9
20260506012335 11 294 1.6 4.8 0.00 0.89 0.00 88 1007.4
20260506012333 12 203 0.0 0.0 0.00 0.36 0.00 93 1010.6
20260506012319 11 181 0.0 0.0 0.00 0.48 0.00 95 1011.0
20260506012312 16 161 0.0 0.0 0.00 0.00 0.00 75 1012.1
20260506011843 15 118 0.0 0.0 0.46 7.21 0.00 95 1009.0
20260506011838 15 249 3.2 4.8 0.00 0.15 0.00 88 1012.0
20260506011833 13 273 0.0 4.8 0.08 6.43 0.00 95 1009.2
20260506011831 13 123 3.2 9.7 0.00 0.74 0.00 95 1011.6
20260506011822 11 181 0.0 0.0 0.00 0.48 0.00 94 1011.1
20260506011819 13 167 4.8 6.4 0.00 0.25 0.00 90 1011.5
20260506011812 16 161 0.0 0.0 0.00 0.00 0.00 75 1012.1
20260506011344 15 249 0.0 1.6 0.00 0.15 0.00 88 1012.0
20260506011341 16 155 8.0 11.3 0.00 0.00 0.00 83 1011.6
20260506011338 11 294 3.2 4.8 0.00 0.89 0.00 88 1007.5
20260506011334 13 117 3.2 9.7 0.00 0.74 0.00 95 1011.8
20260506011330 13 38 0.0 1.6 0.08 6.43 0.00 95 1009.5
20260506011325 11 181 0.0 0.0 0.00 0.48 0.00 94 1010.9
20260506011316 13 196 3.2 4.8 0.00 0.25 0.00 90 1011.5
20260506011312 16 160 0.0 0.0 0.00 0.00 0.00 75 1012.2
20260506010850 16 127 4.8 9.7 0.00 0.00 0.00 84 1011.7
20260506010841 15 0 1.6 3.2 0.00 0.15 0.00 88 1012.0
20260506010834 13 124 3.2 4.8 0.00 0.74 0.00 95 1012.0
20260506010832 11 294 3.2 4.8 0.00 0.89 0.00 88 1007.6
20260506010830 12 203 0.0 0.0 0.00 0.36 0.00 93 1010.9
20260506010827 13 38 0.0 0.0 0.08 6.43 0.00 95 1009.5
20260506010819 11 181 0.0 0.0 0.00 0.48 0.00 94 1010.8
20260506010812 13 211 3.2 6.4 0.00 0.25 0.00 90 1011.6
20260506010343 15 118 0.0 0.0 0.56 7.29 0.00 95 1009.1
20260506010338 15 249 0.0 3.2 0.00 0.15 0.00 88 1012.0
20260506010336 12 203 0.0 0.0 0.00 0.36 0.00 93 1010.8
20260506010332 10 294 1.6 4.8 0.00 0.89 0.00 88 1007.6
20260506010319 11 189 0.0 0.0 0.00 0.48 0.00 95 1010.9
20260506010316 13 171 1.6 8.0 0.00 0.25 0.00 90 1011.4
20260506010312 16 160 0.0 0.0 0.00 0.00 0.00 74 1012.2
20260506005844 16 164 4.8 12.9 0.00 0.00 0.00 84 1011.6
20260506005840 15 249 1.6 4.8 0.00 0.15 0.00 88 1012.1
20260506005833 12 203 0.0 1.6 0.00 0.36 0.00 93 1010.9
20260506005831 13 119 3.2 4.8 0.00 0.74 0.00 95 1012.2
20260506005822 11 189 0.0 0.0 0.00 0.48 0.00 94 1010.9
20260506005812 13 165 8.0 8.0 0.00 0.25 0.00 91 1011.5
20260506005344 15 0 0.0 3.2 0.00 0.15 0.00 88 1012.2
20260506005341 16 148 9.7 14.5 0.00 0.00 0.00 84 1011.6
20260506005333 10 294 3.2 6.4 0.00 0.89 0.00 88 1007.5
20260506005331 13 115 0.0 3.2 0.00 0.74 0.00 95 1012.2
20260506005319 11 189 0.0 0.0 0.00 0.48 0.00 94 1010.9
20260506005315 16 160 0.0 0.0 0.00 0.00 0.00 73 1012.4
20260506005312 13 180 3.2 6.4 0.00 0.25 0.00 91 1011.4
20260506004842 15 249 1.6 4.8 0.00 0.15 0.00 87 1012.2
20260506004835 10 294 4.8 6.4 0.00 0.89 0.00 88 1007.6
20260506004833 12 203 0.0 0.0 0.00 0.36 0.00 93 1010.8
20260506004819 11 188 0.0 0.0 0.00 0.48 0.00 94 1010.9
20260506004813 13 227 4.8 6.4 0.00 0.25 0.00 91 1011.5
20260506004348 16 166 8.0 12.9 0.00 0.00 0.00 84 1011.7
20260506004338 15 249 0.0 1.6 0.00 0.15 0.00 87 1012.1
20260506004332 10 294 3.2 6.4 0.00 0.89 0.00 88 1007.7
20260506004330 12 203 0.0 0.0 0.00 0.36 0.00 93 1010.8
20260506004319 11 188 0.0 0.0 0.00 0.48 0.00 95 1011.0
20260506004312 16 160 0.0 0.0 0.00 0.00 0.00 74 1012.5
20260506003844 16 169 3.2 12.9 0.00 0.00 0.00 84 1011.6
20260506003840 13 115 1.6 1.6 0.00 0.74 0.00 95 1012.2
20260506003838 10 294 4.8 4.8 0.00 0.89 0.00 88 1007.6
20260506003833 12 203 0.0 1.6 0.00 0.36 0.00 93 1010.9
20260506003825 11 189 0.0 0.0 0.00 0.48 0.00 95 1010.9
20260506003818 13 212 4.8 4.8 0.00 0.25 0.00 91 1011.6
20260506003815 16 160 0.0 0.0 0.00 0.00 0.00 74 1012.5
20260506003342 14 118 0.0 0.0 0.53 7.06 0.00 95 1009.6
20260506003340 15 249 0.0 1.6 0.00 0.15 0.00 87 1012.2
20260506003333 12 203 0.0 1.6 0.00 0.36 0.00 93 1010.9
20260506003331 13 115 0.0 3.2 0.00 0.74 0.00 95 1012.2
20260506003319 11 189 0.0 0.0 0.00 0.48 0.00 95 1010.9
20260506003312 13 267 3.2 4.8 0.00 0.25 0.00 90 1011.6
20260506002844 16 158 4.8 12.9 0.00 0.00 0.00 84 1011.6
20260506002839 15 249 0.0 1.6 0.00 0.15 0.00 87 1012.2
20260506002835 10 294 3.2 4.8 0.00 0.89 0.00 88 1007.6
20260506002833 13 29 3.2 6.4 0.10 6.40 0.00 95 1009.7
20260506002830 12 203 0.0 0.0 0.00 0.36 0.00 93 1011.0
20260506002819 11 188 0.0 0.0 0.00 0.48 0.00 94 1011.0
20260506002812 13 268 1.6 3.2 0.00 0.25 0.00 90 1011.5
20260506002343 15 249 0.0 3.2 0.00 0.15 0.00 86 1012.2
20260506002341 16 156 8.0 12.9 0.00 0.00 0.00 84 1011.7
20260506002338 10 294 4.8 6.4 0.00 0.89 0.00 88 1007.6
20260506002333 13 355 1.6 6.4 0.08 6.38 0.00 95 1009.7
20260506002331 13 115 0.0 3.2 0.00 0.74 0.00 95 1012.0
20260506002328 11 188 0.0 1.6 0.00 0.48 0.00 94 1011.0
20260506002318 13 268 0.0 3.2 0.00 0.25 0.00 90 1011.6
20260506002312 15 190 0.0 6.4 0.00 0.00 0.00 74 1012.4
20260506001851 14 118 0.0 0.0 0.86 7.04 0.00 94 1009.7
20260506001841 16 171 6.4 12.9 0.00 0.00 0.00 84 1011.7
20260506001838 15 249 3.2 4.8 0.00 0.15 0.00 85 1012.2
20260506001833 10 294 4.8 4.8 0.00 0.89 0.00 88 1007.9
20260506001831 14 255 3.2 4.8 0.05 6.35 0.00 95 1009.7
20260506001822 11 188 0.0 0.0 0.00 0.48 0.00 94 1011.0
20260506001815 16 173 3.2 6.4 0.00 0.00 0.00 74 1012.4
20260506001344 16 140 8.0 12.9 0.00 0.00 0.00 84 1011.7
20260506001338 10 294 3.2 6.4 0.00 0.89 0.00 88 1007.8
20260506001336 14 215 0.0 3.2 0.05 6.35 0.00 95 1009.7
20260506001333 12 203 0.0 0.0 0.00 0.36 0.00 93 1011.0
20260506001331 13 115 0.0 4.8 0.00 0.74 0.00 95 1012.0
20260506001322 11 188 0.0 0.0 0.00 0.48 0.00 94 1011.0
20260506001318 16 194 4.8 6.4 0.00 0.00 0.00 74 1012.5
20260506000844 16 172 8.0 12.9 0.00 0.00 0.00 84 1011.8
20260506000842 15 250 1.6 6.4 0.00 0.15 0.00 85 1012.4
20260506000837 13 115 3.2 4.8 0.00 0.74 0.00 95 1012.2
20260506000835 10 294 3.2 4.8 0.00 0.89 0.00 88 1008.0
20260506000833 12 203 0.0 0.0 0.00 0.36 0.00 93 1011.0
20260506000828 14 215 1.6 6.4 0.05 6.35 0.00 95 1009.7
20260506000819 11 188 0.0 0.0 0.00 0.48 0.00 94 1011.1
20260506000812 16 197 0.0 0.0 0.00 0.00 0.00 73 1012.6
20260506000349 14 118 0.0 0.0 0.79 6.96 0.00 94 1009.9
20260506000341 16 146 6.4 11.3 0.00 0.00 0.00 84 1011.7
20260506000336 12 203 0.0 0.0 0.00 0.36 0.00 93 1011.0
20260506000334 13 115 1.6 3.2 0.00 0.74 0.00 95 1012.3
20260506000325 11 188 0.0 0.0 0.00 0.48 0.00 94 1011.1
20260506000322 16 187 0.0 0.0 0.00 0.00 0.00 74 1012.6
20260506000318 14 268 3.2 4.8 0.00 0.25 0.00 90 1011.5
20260505235848 16 141 4.8 9.7 0.00 0.00 0.00 84 1011.8
20260505235841 10 294 1.6 4.8 0.00 0.89 0.00 88 1008.1
20260505235838 14 248 1.6 3.2 0.00 0.15 0.00 86 1012.6
20260505235834 13 115 1.6 3.2 0.00 0.74 0.00 95 1012.4
20260505235830 12 203 0.0 4.8 0.00 0.36 0.00 94 1011.0
20260505235827 14 288 3.2 3.2 0.00 6.30 0.00 95 1009.6
20260505235822 11 188 0.0 0.0 0.00 0.48 0.00 94 1011.2
20260505235812 16 187 0.0 0.0 0.00 0.00 0.00 72 1012.7
20260505235344 14 250 1.6 1.6 0.00 0.15 0.00 87 1012.6
20260505235341 16 148 6.4 14.5 0.00 0.00 0.00 84 1011.8
20260505235336 10 294 1.6 4.8 0.00 0.86 0.00 88 1008.1
20260505235334 13 115 0.0 3.2 0.00 0.74 0.00 95 1012.6
20260505235319 11 188 0.0 0.0 0.00 0.48 0.00 94 1011.1
20260505235315 16 165 0.0 4.8 0.00 0.00 0.00 71 1012.8
20260505235312 14 192 3.2 4.8 0.00 0.23 0.00 90 1011.8
20260505234852 14 118 0.0 0.0 1.04 7.04 0.00 94 1009.9
20260505234847 16 138 9.7 11.3 0.00 0.00 0.00 84 1011.9
20260505234841 14 250 0.0 3.2 0.00 0.15 0.00 87 1012.6
20260505234836 12 203 0.0 0.0 0.00 0.36 0.00 93 1011.0
20260505234832 13 115 0.0 3.2 0.00 0.74 0.00 95 1012.6
20260505234828 14 19 1.6 3.2 0.00 6.30 0.00 95 1009.6
20260505234819 11 188 0.0 0.0 0.00 0.48 0.00 94 1011.2
20260505234815 16 138 3.2 4.8 0.00 0.00 0.00 71 1012.9
20260505234812 14 192 3.2 4.8 0.00 0.23 0.00 90 1011.8
20260505234347 16 167 6.4 11.3 0.00 0.00 0.00 84 1011.9
20260505234341 10 294 1.6 4.8 0.00 0.86 0.00 88 1008.1
20260505234338 14 249 3.2 3.2 0.00 0.15 0.00 87 1012.7
20260505234331 12 115 1.6 1.6 0.00 0.74 0.00 95 1012.4
20260505234328 11 188 0.0 1.6 0.00 0.48 0.00 94 1011.2
20260505234315 16 145 3.2 4.8 0.00 0.00 0.00 72 1012.8
20260505234312 14 192 4.8 3.2 0.00 0.23 0.00 90 1011.8
20260505233847 16 169 6.4 14.5 0.00 0.00 0.00 84 1011.9
20260505233832 10 294 3.2 4.8 0.00 0.86 0.00 88 1008.1
20260505233830 13 203 0.0 1.6 0.00 0.36 0.00 93 1011.2
20260505233822 11 188 0.0 3.2 0.00 0.48 0.00 94 1011.1
20260505233815 14 191 0.0 1.6 0.00 0.23 0.00 89 1011.8
20260505233812 16 141 3.2 6.4 0.00 0.00 0.00 72 1012.9
20260505233342 16 170 6.4 14.5 0.00 0.00 0.00 84 1012.0
20260505233340 14 249 0.0 0.0 0.00 0.15 0.00 87 1012.9
20260505233338 10 294 3.2 6.4 0.00 0.86 0.00 88 1008.1
20260505233334 13 115 0.0 3.2 0.00 0.74 0.00 95 1012.5
20260505233330 13 203 0.0 0.0 0.00 0.36 0.00 93 1011.2
20260505233328 14 150 1.6 4.8 0.00 6.30 0.00 95 1009.8
20260505233325 11 138 0.0 0.0 0.00 0.48 0.00 94 1011.2
20260505233312 16 139 4.8 6.4 0.00 0.00 0.00 71 1012.9
20260505232844 16 146 8.0 11.3 0.00 0.00 0.00 84 1012.0
20260505232838 15 248 0.0 3.2 0.00 0.15 0.00 88 1013.0
20260505232834 13 203 0.0 1.6 0.00 0.36 0.00 94 1011.2
20260505232832 10 294 4.8 4.8 0.00 0.86 0.00 88 1008.0
20260505232822 11 131 0.0 0.0 0.00 0.48 0.00 94 1011.3
20260505232815 16 127 6.4 8.0 0.00 0.00 0.00 71 1012.9
20260505232812 14 209 1.6 4.8 0.00 0.23 0.00 90 1011.8
20260505232351 16 174 6.4 14.5 0.00 0.00 0.00 84 1012.1
20260505232341 15 249 1.6 6.4 0.00 0.15 0.00 88 1013.0
20260505232335 10 294 3.2 4.8 0.00 0.86 0.00 88 1008.0
20260505232331 11 131 0.0 0.0 0.00 0.48 0.00 94 1011.3
20260505232321 16 120 8.0 8.0 0.00 0.00 0.00 71 1012.9
20260505232312 14 209 3.2 6.4 0.00 0.23 0.00 90 1011.9
20260505231845 15 118 0.0 0.0 0.36 6.35 0.00 93 1010.0
20260505231841 14 249 4.8 4.8 0.00 0.15 0.00 88 1013.1
20260505231838 10 294 4.8 4.8 0.00 0.86 0.00 88 1008.0
20260505231834 13 82 1.6 4.8 0.00 0.74 0.00 95 1012.7
20260505231830 14 104 3.2 3.2 0.00 6.30 0.00 95 1010.1
20260505231821 11 131 0.0 1.6 0.00 0.48 0.00 94 1011.4
20260505231818 16 128 6.4 8.0 0.00 0.00 0.00 72 1012.9
20260505231813 14 167 0.0 4.8 0.00 0.23 0.00 90 1012.0
20260505231341 15 248 1.6 3.2 0.00 0.15 0.00 88 1013.0
20260505231333 10 294 3.2 6.4 0.00 0.86 0.00 88 1008.0
20260505231331 13 82 0.0 3.2 0.00 0.74 0.00 95 1012.8
20260505231325 11 131 1.6 1.6 0.00 0.48 0.00 94 1011.4
20260505231312 16 121 6.4 6.4 0.00 0.00 0.00 71 1013.0
20260505230847 16 167 1.6 12.9 0.00 0.00 0.00 84 1012.2
20260505230840 15 249 0.0 1.6 0.00 0.15 0.00 88 1012.9
20260505230837 12 82 0.0 1.6 0.00 0.74 0.00 95 1012.8
20260505230832 10 294 4.8 4.8 0.00 0.86 0.00 88 1008.1
20260505230819 11 131 0.0 0.0 0.00 0.48 0.00 94 1011.5
20260505230815 16 102 0.0 6.4 0.00 0.00 0.00 70 1013.0
20260505230812 14 166 1.6 4.8 0.00 0.23 0.00 89 1012.0
20260505230345 16 118 0.0 0.0 0.33 6.30 0.00 94 1010.2
20260505230341 16 159 6.4 12.9 0.00 0.00 0.00 84 1012.2
20260505230338 15 249 0.0 1.6 0.00 0.15 0.00 88 1012.9
20260505230335 10 294 3.2 6.4 0.00 0.86 0.00 88 1008.1
20260505230330 13 203 0.0 0.0 0.00 0.36 0.00 94 1011.2
20260505230327 14 90 1.6 3.2 0.08 6.30 0.00 95 1010.2
20260505230325 11 131 0.0 0.0 0.00 0.48 0.00 94 1011.6
20260505230318 14 161 0.0 6.4 0.00 0.23 0.00 90 1012.1
20260505230315 16 96 0.0 0.0 0.00 0.00 0.00 70 1013.0
20260505225842 16 161 3.2 9.7 0.00 0.00 0.00 84 1012.3
20260505225838 15 250 0.0 1.6 0.00 0.15 0.00 88 1013.0
20260505225836 13 203 0.0 0.0 0.00 0.36 0.00 94 1011.3
20260505225831 14 126 3.2 6.4 0.08 6.30 0.00 95 1010.2
20260505225819 12 130 0.0 0.0 0.00 0.48 0.00 94 1011.5
20260505225812 14 215 0.0 4.8 0.00 0.23 0.00 90 1012.1
20260505225344 16 123 3.2 11.3 0.00 0.00 0.00 84 1012.2
20260505225338 15 249 0.0 0.0 0.00 0.15 0.00 88 1013.0
20260505225336 13 203 0.0 0.0 0.00 0.36 0.00 94 1011.3
20260505225334 12 81 0.0 1.6 0.00 0.74 0.00 95 1012.8
20260505225332 10 295 3.2 6.4 0.00 0.86 0.00 88 1008.3
20260505225328 14 66 1.6 8.0 0.08 6.30 0.00 95 1010.2
20260505225321 14 187 3.2 6.4 0.00 0.23 0.00 90 1012.0
20260505225316 16 92 0.0 0.0 0.00 0.00 0.00 72 1013.1
20260505224845 16 118 0.0 0.0 0.05 6.02 0.00 94 1010.7
20260505224838 10 294 3.2 4.8 0.00 0.86 0.00 88 1008.3
20260505224833 13 203 0.0 0.0 0.00 0.36 0.00 94 1011.3
20260505224831 15 133 4.8 6.4 0.10 6.30 0.00 95 1010.2
20260505224819 16 89 0.0 0.0 0.00 0.00 0.00 72 1013.1
20260505224812 14 184 3.2 6.4 0.00 0.23 0.00 90 1012.0
20260505224341 16 154 4.8 11.3 0.00 0.00 0.00 83 1012.3
20260505224337 12 81 0.0 1.6 0.00 0.74 0.00 94 1012.8
20260505224335 10 295 4.8 4.8 0.00 0.86 0.00 88 1008.3
20260505224330 13 203 0.0 0.0 0.00 0.36 0.00 94 1011.3
20260505224328 14 228 0.0 4.8 0.10 6.30 0.00 95 1010.1
20260505224322 12 130 0.0 0.0 0.00 0.48 0.00 94 1011.6
20260505224312 14 192 0.0 4.8 0.00 0.23 0.00 90 1012.0
20260505223841 16 192 3.2 9.7 0.00 0.00 0.00 83 1012.4
20260505223834 12 81 0.0 3.2 0.00 0.74 0.00 94 1012.8
20260505223830 13 203 0.0 0.0 0.00 0.36 0.00 94 1011.4
20260505223828 15 269 0.0 4.8 0.10 6.30 0.00 95 1010.1
20260505223819 11 130 0.0 0.0 0.00 0.48 0.00 94 1011.7
20260505223812 16 120 0.0 0.0 0.00 0.00 0.00 71 1013.3
20260505223345 16 91 0.0 0.0 0.00 5.97 0.00 94 1010.3
20260505223341 16 200 6.4 14.5 0.00 0.00 0.00 83 1012.5
20260505223338 15 250 0.0 0.0 0.00 0.15 0.00 88 1013.2
20260505223334 14 26 1.6 3.2 0.10 6.30 0.00 95 1010.1
20260505223330 13 203 0.0 0.0 0.00 0.36 0.00 94 1011.5
20260505223319 11 130 0.0 0.0 0.00 0.48 0.00 94 1011.7
20260505223313 16 132 0.0 4.8 0.00 0.00 0.00 71 1013.3
20260505222844 16 193 3.2 11.3 0.00 0.00 0.00 83 1012.4
20260505222838 15 250 0.0 1.6 0.00 0.15 0.00 88 1013.3
20260505222834 13 81 0.0 3.2 0.00 0.74 0.00 94 1012.7
20260505222832 10 295 3.2 6.4 0.00 0.86 0.00 88 1008.4
20260505222830 13 203 0.0 3.2 0.00 0.36 0.00 94 1011.6
20260505222828 14 24 3.2 4.8 0.10 6.30 0.00 95 1010.1
20260505222819 11 130 0.0 0.0 0.00 0.48 0.00 94 1011.7
20260505222816 16 121 4.8 6.4 0.00 0.00 0.00 72 1013.4
20260505222812 13 192 4.8 4.8 0.00 0.23 0.00 89 1012.1
20260505222344 16 167 4.8 16.1 0.00 0.00 0.00 83 1012.5
20260505222338 15 248 0.0 1.6 0.00 0.15 0.00 88 1013.3
20260505222333 13 203 1.6 3.2 0.00 0.36 0.00 94 1011.6
20260505222331 13 81 1.6 3.2 0.00 0.74 0.00 94 1012.7
20260505222328 14 245 0.0 8.0 0.10 6.30 0.00 95 1010.1
20260505222322 11 130 0.0 0.0 0.00 0.48 0.00 94 1011.6
20260505222316 16 133 4.8 6.4 0.00 0.00 0.00 74 1013.4
20260505221853 16 91 0.0 0.0 0.00 5.97 0.00 94 1010.4
20260505221841 16 192 9.7 12.9 0.00 0.00 0.00 83 1012.6
20260505221838 15 248 0.0 3.2 0.00 0.15 0.00 88 1013.3
20260505221836 10 295 6.4 6.4 0.00 0.86 0.00 88 1008.5
20260505221830 13 203 0.0 0.0 0.00 0.36 0.00 94 1011.5
20260505221825 11 121 0.0 0.0 0.00 0.48 0.00 94 1011.7
20260505221813 15 117 0.0 0.0 0.00 0.00 0.00 75 1013.4
20260505221347 16 211 6.4 16.1 0.00 0.00 0.00 83 1012.7
20260505221345 15 250 3.2 8.0 0.00 0.15 0.00 88 1013.3
20260505221336 10 296 3.2 4.8 0.00 0.86 0.00 88 1008.5
20260505221334 13 75 4.8 6.4 0.00 0.74 0.00 94 1012.7
20260505221331 14 234 1.6 3.2 0.10 6.30 0.00 95 1010.1
20260505221322 11 121 0.0 0.0 0.00 0.48 0.00 94 1011.7
20260505221318 13 194 0.0 3.2 0.00 0.23 0.00 89 1012.2
20260505221313 15 120 0.0 0.0 0.00 0.00 0.00 76 1013.5
20260505220845 16 189 9.7 14.5 0.00 0.00 0.00 83 1012.8
20260505220841 15 248 8.0 6.4 0.00 0.15 0.00 88 1013.4
20260505220836 10 296 1.6 6.4 0.00 0.86 0.00 88 1008.5
20260505220831 13 70 4.8 6.4 0.00 0.74 0.00 94 1012.6
20260505220828 14 234 3.2 4.8 0.10 6.25 0.00 95 1010.1
20260505220820 11 121 0.0 0.0 0.00 0.48 0.00 94 1011.7
20260505220816 15 155 0.0 0.0 0.00 0.00 0.00 78 1013.5
20260505220812 14 194 0.0 1.6 0.00 0.23 0.00 89 1012.1
20260505220401 15 249 1.6 4.8 0.00 0.15 0.00 87 1013.4
20260505220344 16 202 6.4 14.5 0.00 0.00 0.00 83 1012.7
20260505220342 16 91 0.0 0.0 0.00 5.97 0.00 94 1010.5
20260505220333 10 296 6.4 6.4 0.00 0.86 0.00 88 1008.4
20260505220331 13 68 3.2 4.8 0.00 0.74 0.00 94 1012.8
20260505220328 14 252 0.0 4.8 0.38 6.22 0.00 94 1010.1
20260505220322 11 121 0.0 0.0 0.00 0.48 0.00 94 1011.7
20260505220316 15 155 0.0 0.0 0.00 0.00 0.00 78 1013.5
20260505220312 13 194 0.0 1.6 0.00 0.23 0.00 90 1012.1
20260505215844 16 186 8.0 12.9 0.00 0.00 0.00 82 1012.7
20260505215841 15 249 3.2 6.4 0.00 0.15 0.00 87 1013.2
20260505215835 14 249 3.2 6.4 0.56 6.22 0.00 94 1010.3
20260505215833 10 296 3.2 6.4 0.00 0.86 0.00 88 1008.5
20260505215831 13 67 1.6 3.2 0.00 0.74 0.00 94 1012.8
20260505215819 11 121 0.0 0.0 0.00 0.48 0.00 94 1011.6
20260505215813 13 194 1.6 4.8 0.00 0.23 0.00 89 1012.2
20260505215344 16 217 4.8 17.7 0.00 0.00 0.00 82 1012.8
20260505215342 15 249 4.8 8.0 0.00 0.15 0.00 87 1013.4
20260505215336 10 296 4.8 4.8 0.00 0.86 0.00 88 1008.5
20260505215334 14 251 4.8 6.4 0.69 6.22 0.00 94 1010.3
20260505215331 13 66 1.6 3.2 0.00 0.74 0.00 94 1012.8
20260505215328 11 121 0.0 0.0 0.00 0.48 0.00 94 1011.6
20260505215313 15 155 0.0 0.0 0.00 0.00 0.00 78 1013.5
20260505214846 15 249 6.4 8.0 0.00 0.15 0.00 87 1013.5
20260505214842 16 91 0.0 0.0 0.00 5.97 0.00 94 1010.6
20260505214834 13 66 1.6 4.8 0.00 0.74 0.00 94 1013.0
20260505214830 13 203 0.0 0.0 0.00 0.36 0.00 94 1011.6
20260505214828 14 247 0.0 3.2 0.97 6.20 0.00 95 1010.3
20260505214822 11 121 0.0 0.0 0.00 0.48 0.00 94 1011.7
20260505214816 15 155 0.0 0.0 0.00 0.00 0.00 77 1013.5
20260505214812 13 111 3.2 3.2 0.00 0.23 0.00 89 1012.2
20260505214347 17 191 3.2 12.9 0.00 0.00 0.00 82 1012.7
20260505214341 15 249 6.4 6.4 0.00 0.15 0.00 86 1013.5
20260505214339 10 297 4.8 4.8 0.00 0.86 0.00 88 1008.6
20260505214333 13 203 0.0 0.0 0.00 0.36 0.00 94 1011.7
20260505214331 14 246 0.0 4.8 1.47 6.20 0.00 94 1010.8
20260505214322 11 139 0.0 0.0 0.00 0.48 0.00 94 1011.7
20260505214315 13 111 0.0 3.2 0.00 0.23 0.00 89 1012.2
20260505214313 15 154 0.0 0.0 0.00 0.00 0.00 77 1013.5
20260505213842 17 190 4.8 14.5 0.00 0.00 0.00 82 1012.8
20260505213838 15 249 4.8 4.8 0.00 0.15 0.00 86 1013.6
20260505213836 12 203 0.0 0.0 0.00 0.36 0.00 94 1011.7
20260505213831 13 66 0.0 3.2 0.00 0.74 0.00 94 1013.1
20260505213828 14 252 0.0 3.2 1.80 6.20 0.00 94 1010.8
20260505213819 11 146 0.0 0.0 0.00 0.48 0.00 94 1011.7
20260505213813 15 141 0.0 0.0 0.00 0.00 0.00 77 1013.5
20260505213342 16 91 0.0 0.0 0.00 5.97 0.00 94 1010.9
20260505213340 15 249 1.6 4.8 0.00 0.15 0.00 85 1013.7
20260505213337 13 66 3.2 4.8 0.00 0.74 0.00 94 1013.2
20260505213333 10 297 3.2 4.8 0.00 0.86 0.00 88 1008.7
20260505213331 14 247 0.0 4.8 1.98 6.20 0.00 94 1010.8
20260505213322 11 148 0.0 0.0 0.00 0.48 0.00 94 1011.8
20260505213313 15 141 0.0 0.0 0.00 0.00 0.00 76 1013.6
20260505212850 17 197 11.3 12.9 0.00 0.00 0.00 81 1012.8
20260505212844 15 249 0.0 3.2 0.00 0.15 0.00 85 1013.8
20260505212836 12 203 0.0 0.0 0.00 0.36 0.00 93 1011.8
20260505212833 10 297 3.2 4.8 0.00 0.86 0.00 88 1008.7
20260505212831 13 67 3.2 6.4 0.00 0.74 0.00 94 1013.1
20260505212828 14 286 3.2 4.8 2.18 6.20 0.00 94 1010.8
20260505212820 11 149 0.0 0.0 0.00 0.48 0.00 94 1011.9
20260505212818 13 83 0.0 4.8 0.00 0.23 0.00 89 1012.3
20260505212813 15 86 0.0 0.0 0.00 0.00 0.00 77 1013.6
20260505212344 17 178 6.4 14.5 0.00 0.00 0.00 81 1012.8
20260505212338 15 249 0.0 3.2 0.00 0.15 0.00 85 1013.8
20260505212335 15 67 1.6 6.4 2.29 6.20 0.00 94 1010.8
20260505212333 10 297 4.8 4.8 0.00 0.86 0.00 88 1008.8
20260505212330 12 203 0.0 0.0 0.00 0.36 0.00 93 1011.8
20260505212322 12 149 0.0 0.0 0.00 0.48 0.00 94 1011.8
20260505212318 13 83 4.8 6.4 0.00 0.23 0.00 89 1012.4
20260505212313 15 75 0.0 0.0 0.00 0.00 0.00 78 1013.7
20260505211850 17 214 8.0 14.5 0.00 0.00 0.00 81 1012.8
20260505211847 17 120 0.0 0.0 0.00 5.94 0.00 94 1011.0
20260505211844 15 249 1.6 4.8 0.00 0.15 0.00 84 1013.7
20260505211839 10 297 4.8 4.8 0.00 0.86 0.00 88 1008.8
20260505211834 13 83 1.6 4.8 0.00 0.74 0.00 94 1013.2
20260505211830 13 203 0.0 0.0 0.00 0.36 0.00 93 1011.8
20260505211828 15 242 1.6 4.8 2.36 6.20 0.00 94 1010.8
20260505211819 12 149 0.0 0.0 0.00 0.48 0.00 93 1011.8
20260505211813 15 51 0.0 0.0 0.00 0.00 0.00 81 1013.7
20260505211341 17 205 6.4 12.9 0.00 0.00 0.00 81 1012.8
20260505211339 10 297 3.2 4.8 0.00 0.86 0.00 88 1008.8
20260505211333 13 203 0.0 0.0 0.00 0.36 0.00 93 1011.8
20260505211331 13 84 4.8 8.0 0.00 0.74 0.00 94 1013.4
20260505211328 15 234 4.8 9.7 2.44 6.20 0.00 94 1010.9
20260505211319 12 148 0.0 0.0 0.00 0.48 0.00 93 1011.8
20260505211316 15 25 0.0 0.0 0.00 0.00 0.00 82 1013.7
20260505210841 15 249 0.0 1.6 0.00 0.15 0.00 82 1013.8
20260505210834 13 67 1.6 8.0 0.00 0.74 0.00 93 1013.4
20260505210831 15 36 8.0 11.3 2.39 6.15 0.00 95 1010.9
20260505210822 12 148 0.0 0.0 0.00 0.48 0.00 93 1011.8
20260505210813 15 11 0.0 0.0 0.00 0.00 0.00 82 1013.8
20260505210347 17 119 0.0 0.0 0.00 5.94 0.00 94 1011.0
20260505210341 17 193 3.2 14.5 0.00 0.00 0.00 80 1012.8
20260505210338 15 249 1.6 1.6 0.00 0.15 0.00 82 1013.7
20260505210330 13 203 0.0 0.0 0.00 0.36 0.00 93 1011.9
20260505210319 12 148 0.0 0.0 0.00 0.48 0.00 93 1011.9
20260505210316 15 11 0.0 0.0 0.00 0.00 0.00 83 1013.8
20260505210312 14 206 0.0 3.2 0.00 0.23 0.00 88 1012.5
20260505205843 10 297 3.2 4.8 0.00 0.86 0.00 88 1008.9
20260505205841 15 249 0.0 1.6 0.00 0.15 0.00 82 1013.7
20260505205834 13 86 4.8 6.4 0.00 0.74 0.00 93 1013.4
20260505205830 13 203 0.0 0.0 0.00 0.36 0.00 93 1011.8
20260505205819 12 148 0.0 0.0 0.00 0.48 0.00 93 1012.0
20260505205813 15 328 0.0 0.0 0.00 0.00 0.00 84 1013.7
20260505205344 17 205 12.9 12.9 0.00 0.00 0.00 80 1013.0
20260505205338 15 249 0.0 0.0 0.00 0.15 0.00 81 1013.7
20260505205334 13 105 3.2 9.7 0.00 0.74 0.00 93 1013.4
20260505205328 15 40 1.6 4.8 1.78 5.54 0.00 94 1010.8
20260505205319 12 148 0.0 0.0 0.00 0.48 0.00 93 1012.0
20260505205313 15 330 0.0 0.0 0.00 0.00 0.00 84 1013.7
20260505204842 17 119 0.0 0.0 0.00 5.94 0.00 94 1011.1
20260505204838 15 249 0.0 3.2 0.00 0.15 0.00 81 1013.7
20260505204835 15 284 3.2 6.4 1.47 5.23 0.00 94 1010.8
20260505204833 10 297 3.2 4.8 0.00 0.86 0.00 88 1008.9
20260505204831 13 105 3.2 12.9 0.00 0.74 0.00 93 1013.3
20260505204823 12 148 0.0 0.0 0.00 0.48 0.00 93 1011.9
20260505204816 15 335 0.0 6.4 0.00 0.00 0.00 83 1013.6
20260505204350 17 193 8.0 11.3 0.00 0.00 0.00 79 1012.9
20260505204344 15 249 1.6 3.2 0.00 0.15 0.00 81 1013.7
20260505204339 13 203 0.0 0.0 0.00 0.36 0.00 93 1011.9
20260505204334 13 83 3.2 8.0 0.00 0.74 0.00 93 1013.3
20260505204328 12 149 0.0 0.0 0.00 0.48 0.00 93 1012.0
20260505204319 15 322 4.8 6.4 0.00 0.00 0.00 84 1013.6
20260505203841 15 249 0.0 3.2 0.00 0.15 0.00 80 1013.8
20260505203834 13 96 3.2 6.4 0.00 0.74 0.00 93 1013.4
20260505203830 13 203 0.0 0.0 0.00 0.36 0.00 93 1011.8
20260505203819 12 149 0.0 0.0 0.00 0.48 0.00 93 1012.0
20260505203813 14 6 0.0 0.0 0.00 0.00 0.00 84 1013.7
20260505203342 17 119 0.0 0.0 0.00 5.94 0.00 93 1011.2
20260505203334 10 298 3.2 4.8 0.00 0.86 0.00 88 1008.8
20260505203331 13 110 3.2 9.7 0.00 0.74 0.00 93 1013.3
20260505203322 12 149 0.0 0.0 0.00 0.48 0.00 93 1012.0
20260505203313 14 332 0.0 6.4 0.00 0.00 0.00 84 1013.9
20260505202843 15 249 3.2 3.2 0.00 0.15 0.00 78 1013.7
20260505202837 13 61 4.8 11.3 0.00 0.74 0.00 92 1013.3
20260505202830 13 203 0.0 0.0 0.00 0.36 0.00 93 1011.8
20260505202828 15 59 1.6 1.6 0.41 4.01 0.00 94 1010.4
20260505202822 12 149 0.0 0.0 0.00 0.48 0.00 93 1012.0
20260505202819 14 18 0.0 1.6 0.00 0.00 0.00 84 1014.0
20260505202812 14 142 1.6 1.6 0.00 0.23 0.00 87 1012.4
20260505202341 17 179 11.3 16.1 0.00 0.00 0.00 78 1012.9
20260505202338 15 249 0.0 8.0 0.00 0.15 0.00 79 1013.7
20260505202334 10 298 3.2 4.8 0.00 0.86 0.00 88 1008.7
20260505202331 15 59 0.0 4.8 0.33 3.91 0.00 94 1010.4
20260505202325 12 149 0.0 0.0 0.00 0.48 0.00 93 1012.0
20260505202319 14 333 0.0 0.0 0.00 0.00 0.00 83 1014.0
20260505202312 14 142 0.0 3.2 0.00 0.23 0.00 87 1012.6
20260505201842 17 119 0.0 0.0 0.00 5.94 0.00 93 1011.3
20260505201839 10 298 3.2 4.8 0.00 0.86 0.00 88 1008.7
20260505201831 14 75 11.3 11.3 0.00 0.74 0.00 92 1013.3
20260505201828 15 59 1.6 3.2 0.28 3.84 0.00 94 1010.4
20260505201820 12 149 0.0 0.0 0.00 0.48 0.00 93 1012.2
20260505201815 14 142 1.6 3.2 0.00 0.23 0.00 87 1012.6
20260505201813 15 306 0.0 1.6 0.00 0.00 0.00 82 1013.9
20260505201344 17 231 3.2 14.5 0.00 0.00 0.00 77 1013.0
20260505201339 15 249 4.8 8.0 0.00 0.15 0.00 81 1013.8
20260505201334 14 107 9.7 12.9 0.00 0.74 0.00 92 1013.2
20260505201313 15 351 0.0 1.6 0.00 0.00 0.00 82 1013.9
20260505200844 15 249 4.8 6.4 0.00 0.15 0.00 82 1013.8
20260505200840 14 117 3.2 9.7 0.00 0.74 0.00 92 1013.2
20260505200836 10 300 3.2 4.8 0.00 0.86 0.00 87 1008.8
20260505200819 15 36 0.0 0.0 0.00 0.00 0.00 82 1014.0
20260505200812 14 142 1.6 3.2 0.00 0.23 0.00 87 1012.6
20260505200345 17 119 0.0 1.6 0.00 5.94 0.00 93 1011.2
20260505200341 15 249 4.8 4.8 0.00 0.15 0.00 82 1013.9
20260505200339 10 321 1.6 3.2 0.00 0.86 0.00 87 1008.7
20260505200337 14 87 4.8 6.4 0.00 0.74 0.00 92 1013.3
20260505200333 13 203 1.6 3.2 0.00 0.36 0.00 93 1011.8
20260505200321 14 142 3.2 4.8 0.00 0.23 0.00 87 1012.7
20260505200319 12 149 0.0 0.0 0.00 0.48 0.00 93 1012.0
20260505200313 15 29 0.0 0.0 0.00 0.00 0.00 83 1014.0
20260505195842 17 194 4.8 14.5 0.00 0.00 0.00 75 1013.1
20260505195839 15 133 3.2 4.8 0.20 3.76 0.00 94 1010.1
20260505195833 10 321 1.6 1.6 0.00 0.86 0.00 87 1008.7
20260505195831 14 74 3.2 8.0 0.00 0.74 0.00 91 1013.2
20260505195819 14 43 0.0 0.0 0.00 0.00 0.00 83 1013.9
20260505195815 14 142 4.8 4.8 0.00 0.23 0.00 87 1012.6
20260505195341 16 249 4.8 14.5 0.00 0.15 0.00 79 1013.9
20260505195339 13 203 1.6 3.2 0.00 0.36 0.00 93 1011.8
20260505195337 10 321 0.0 4.8 0.00 0.86 0.00 87 1008.7
20260505195331 15 89 4.8 9.7 0.00 0.74 0.00 91 1013.2
20260505195325 12 149 0.0 0.0 0.00 0.48 0.00 93 1011.9
20260505195322 14 30 0.0 0.0 0.00 0.00 0.00 83 1013.8
20260505195315 14 142 0.0 0.0 0.00 0.23 0.00 87 1012.4
20260505194845 17 201 3.2 12.9 0.00 0.00 0.00 74 1012.9
20260505194842 17 175 0.0 0.0 0.15 5.94 0.00 93 1011.2
20260505194838 15 261 9.7 14.5 0.00 0.15 0.00 79 1013.9
20260505194833 13 203 0.0 1.6 0.00 0.36 0.00 92 1011.8
20260505194831 15 59 8.0 8.0 0.00 0.74 0.00 91 1013.3
20260505194819 12 149 0.0 3.2 0.00 0.48 0.00 93 1011.8
20260505194815 14 195 0.0 0.0 0.00 0.23 0.00 87 1012.4
20260505194813 14 141 0.0 0.0 0.00 0.00 0.00 84 1013.8
20260505194344 15 263 11.3 12.9 0.00 0.15 0.00 79 1013.8
20260505194341 17 207 8.0 9.7 0.00 0.00 0.00 73 1012.9
20260505194336 10 325 4.8 8.0 0.00 0.86 0.00 87 1008.7
20260505194331 15 76 3.2 8.0 0.00 0.74 0.00 91 1013.1
20260505194325 12 149 1.6 3.2 0.00 0.48 0.00 93 1012.0
20260505194316 14 141 0.0 0.0 0.00 0.00 0.00 84 1013.9
20260505193848 17 174 6.4 12.9 0.00 0.00 0.00 73 1012.9
20260505193838 15 176 3.2 4.8 0.00 0.15 0.00 82 1013.7
20260505193833 11 319 4.8 8.0 0.00 0.86 0.00 87 1008.8
20260505193831 15 71 3.2 9.7 0.00 0.74 0.00 91 1013.0
20260505193824 12 150 0.0 1.6 0.00 0.48 0.00 93 1012.0
20260505193819 14 141 0.0 0.0 0.00 0.00 0.00 84 1013.8
20260505193344 15 177 1.6 8.0 0.00 0.15 0.00 83 1013.6
20260505193342 17 151 0.0 0.0 0.18 5.94 0.00 92 1011.1
20260505193334 15 57 8.0 12.9 0.00 0.74 0.00 90 1013.1
20260505193330 13 203 0.0 1.6 0.00 0.36 0.00 92 1011.8
20260505193319 12 150 0.0 3.2 0.00 0.48 0.00 93 1012.0
20260505193313 14 141 0.0 0.0 0.00 0.00 0.00 83 1013.7
20260505192843 15 109 1.6 8.0 0.00 0.74 0.00 90 1013.1
20260505192838 15 152 4.8 4.8 0.00 0.15 0.00 84 1013.6
20260505192836 13 203 0.0 1.6 0.00 0.36 0.00 92 1011.8
20260505192833 11 329 3.2 6.4 0.00 0.86 0.00 87 1008.8
20260505192822 12 150 0.0 0.0 0.00 0.48 0.00 92 1012.0
20260505192813 15 141 0.0 0.0 0.00 0.00 0.00 83 1013.6
20260505192344 17 193 6.4 12.9 0.00 0.00 0.00 71 1012.8
20260505192339 15 107 0.0 0.0 0.00 0.15 0.00 84 1013.5
20260505192336 11 325 1.6 6.4 0.00 0.86 0.00 87 1008.8
20260505192334 15 57 0.0 6.4 0.00 0.74 0.00 90 1012.9
20260505192331 15 197 0.0 3.2 0.05 3.58 0.00 93 1009.9
20260505192319 12 150 0.0 0.0 0.00 0.48 0.00 92 1011.8
20260505192312 14 195 0.0 1.6 0.00 0.23 0.00 88 1012.3
20260505191842 17 279 0.0 0.0 0.18 5.94 0.00 92 1011.0
20260505191834 11 0 1.6 6.4 0.00 0.86 0.00 87 1008.8
20260505191831 15 55 1.6 6.4 0.00 0.74 0.00 90 1012.9
20260505191828 15 197 0.0 1.6 0.03 3.56 0.00 93 1009.9
20260505191823 12 150 0.0 0.0 0.03 0.48 0.00 93 1011.9
20260505191813 15 141 0.0 0.0 0.00 0.00 0.00 82 1013.7
20260505191345 17 207 4.8 12.9 0.00 0.00 0.00 70 1012.7
20260505191343 11 321 3.2 4.8 0.00 0.86 0.00 87 1008.8
20260505191339 14 203 0.0 0.0 0.00 0.36 0.00 92 1011.7
20260505191335 15 198 1.6 1.6 0.00 3.53 0.00 93 1009.7
20260505191331 15 60 1.6 6.4 0.00 0.74 0.00 89 1012.9
20260505191322 12 150 0.0 0.0 0.05 0.48 0.00 93 1011.8
20260505191319 15 16 0.0 0.0 0.00 0.00 0.00 81 1013.6
20260505191315 14 195 1.6 3.2 0.00 0.23 0.00 88 1012.2
20260505190843 10 320 0.0 4.8 0.00 0.86 0.00 87 1008.7
20260505190841 18 195 6.4 11.3 0.00 0.00 0.00 70 1012.8
20260505190838 15 107 0.0 0.0 0.00 0.15 0.00 83 1013.5
20260505190834 15 59 3.2 8.0 0.00 0.74 0.00 89 1012.7
20260505190831 15 198 0.0 3.2 0.00 3.53 0.00 92 1009.7
20260505190826 12 150 0.0 1.6 0.05 0.48 0.00 93 1011.8
20260505190818 14 195 0.0 3.2 0.00 0.23 0.00 88 1012.2
20260505190813 15 344 0.0 0.0 0.00 0.00 0.00 81 1013.5
20260505190347 15 107 0.0 0.0 0.00 0.15 0.00 83 1013.5
20260505190345 18 202 0.0 0.0 0.18 5.94 0.00 90 1010.8
20260505190334 15 198 1.6 3.2 0.00 3.53 0.00 92 1009.7
20260505190331 15 75 3.2 6.4 0.00 0.74 0.00 89 1012.7
20260505190319 12 150 0.0 1.6 0.05 0.48 0.00 93 1011.8
20260505190315 14 195 1.6 3.2 0.00 0.23 0.00 88 1012.2
20260505190313 15 312 0.0 6.4 0.00 0.00 0.00 80 1013.3
20260505185847 15 107 0.0 4.8 0.00 0.15 0.00 82 1013.5
20260505185844 18 204 3.2 11.3 0.00 0.00 0.00 69 1012.8
20260505185834 15 77 0.0 8.0 0.00 0.74 0.00 89 1012.7
20260505185831 15 161 1.6 3.2 0.00 3.53 0.00 92 1009.7
20260505185822 12 150 0.0 1.6 0.05 0.48 0.00 93 1011.8
20260505185815 14 195 1.6 3.2 0.00 0.23 0.00 88 1012.2
20260505185813 15 320 0.0 4.8 0.00 0.00 0.00 81 1013.2
20260505185341 18 186 8.0 11.3 0.00 0.00 0.00 69 1012.8
20260505185338 15 107 0.0 3.2 0.00 0.15 0.00 82 1013.5
20260505185334 10 268 3.2 4.8 0.00 0.86 0.00 87 1008.6
20260505185331 15 65 4.8 8.0 0.00 0.74 0.00 89 1012.7
20260505185325 12 150 0.0 0.0 0.05 0.48 0.00 93 1011.7
20260505185313 15 328 0.0 3.2 0.00 0.00 0.00 81 1013.1
20260505184842 18 270 0.0 0.0 0.00 5.79 0.00 89 1010.8
20260505184838 15 107 1.6 9.7 0.00 0.15 0.00 81 1013.3
20260505184836 14 203 0.0 0.0 0.00 0.36 0.00 92 1011.6
20260505184834 15 161 0.0 1.6 0.08 3.53 0.00 92 1009.7
20260505184822 12 150 0.0 0.0 0.08 0.48 0.00 93 1011.7
20260505184813 15 312 0.0 0.0 0.00 0.00 0.00 81 1013.2
20260505184347 15 107 3.2 3.2 0.00 0.15 0.00 81 1013.3
20260505184342 10 324 3.2 8.0 0.00 0.86 0.00 87 1008.6
20260505184334 16 63 1.6 11.3 0.00 0.74 0.00 88 1012.6
20260505184331 15 161 0.0 1.6 0.10 3.53 0.00 92 1009.6
20260505184319 12 150 0.0 1.6 0.08 0.48 0.00 93 1011.7
20260505184313 15 8 0.0 0.0 0.00 0.00 0.00 81 1013.2
20260505183844 15 107 1.6 3.2 0.00 0.15 0.00 81 1013.2
20260505183841 18 186 8.0 11.3 0.00 0.00 0.00 69 1012.5
20260505183834 16 88 3.2 14.5 0.00 0.74 0.00 88 1012.6
20260505183832 15 161 1.6 3.2 0.10 3.53 0.00 92 1009.6
20260505183830 14 203 0.0 0.0 0.00 0.36 0.00 92 1011.6
20260505183824 12 149 0.0 1.6 0.08 0.48 0.00 92 1011.6
20260505183819 15 30 0.0 4.8 0.00 0.00 0.00 81 1013.3
20260505183347 15 107 0.0 3.2 0.00 0.15 0.00 81 1013.3
20260505183345 18 317 0.0 0.0 0.00 5.77 0.00 88 1010.8
20260505183342 18 204 4.8 14.5 0.00 0.00 0.00 70 1012.4
20260505183337 15 162 0.0 1.6 0.10 3.53 0.00 92 1009.6
20260505183331 16 68 0.0 8.0 0.00 0.74 0.00 87 1012.6
20260505183326 15 53 3.2 8.0 0.00 0.00 0.00 82 1013.2
20260505183323 12 149 1.6 3.2 0.08 0.48 0.00 92 1011.6
20260505183312 14 182 6.4 8.0 0.00 0.23 0.00 88 1012.0
20260505182841 15 107 1.6 6.4 0.00 0.15 0.00 82 1013.3
20260505182837 16 64 4.8 8.0 0.00 0.74 0.00 87 1012.6
20260505182834 15 161 0.0 1.6 0.10 3.53 0.00 92 1009.3
20260505182830 14 203 0.0 0.0 0.00 0.36 0.00 92 1011.4
20260505182821 14 201 4.8 6.4 0.00 0.23 0.00 88 1011.8
20260505182819 12 159 1.6 6.4 0.05 0.46 0.00 92 1011.5
20260505182815 15 36 6.4 8.0 0.00 0.00 0.00 81 1013.2
20260505182342 18 191 11.3 16.1 0.00 0.00 0.00 71 1012.4
20260505182339 11 323 3.2 4.8 0.00 0.86 0.00 88 1008.4
20260505182334 16 83 0.0 6.4 0.00 0.74 0.00 87 1012.6
20260505182328 15 162 0.0 0.0 0.18 3.53 0.00 92 1009.3
20260505182319 12 159 3.2 6.4 0.05 0.46 0.00 92 1011.5
20260505182317 15 25 6.4 8.0 0.00 0.00 0.00 81 1013.2
20260505182312 14 189 4.8 6.4 0.03 0.23 0.00 88 1011.8
20260505181847 18 201 11.3 14.5 0.00 0.00 0.00 71 1012.4
20260505181843 18 317 0.0 0.0 0.00 5.77 0.00 87 1010.8
20260505181840 15 67 0.0 9.7 0.00 0.15 0.00 83 1013.4
20260505181831 16 67 3.2 8.0 0.00 0.74 0.00 86 1012.4
20260505181828 15 162 0.0 0.0 0.18 3.53 0.00 91 1009.3
20260505181819 12 152 0.0 6.4 0.03 0.46 0.00 92 1011.4
20260505181815 14 182 1.6 4.8 0.03 0.23 0.00 88 1011.8
20260505181813 15 39 0.0 3.2 0.00 0.00 0.00 80 1013.2
20260505181345 18 175 6.4 16.1 0.00 0.00 0.00 72 1012.4
20260505181338 15 98 6.4 9.7 0.00 0.15 0.00 83 1013.4
20260505181334 16 162 0.0 3.2 0.18 3.53 0.00 91 1009.4
20260505181331 16 98 6.4 6.4 0.00 0.74 0.00 86 1012.4
20260505181321 14 124 1.6 8.0 0.03 0.23 0.00 88 1011.7
20260505181313 15 4 0.0 6.4 0.00 0.00 0.00 80 1013.3
20260505180844 18 172 6.4 16.1 0.00 0.00 0.00 71 1012.4
20260505180838 15 81 3.2 4.8 0.00 0.15 0.00 84 1013.4
20260505180835 11 336 1.6 6.4 0.00 0.86 0.00 88 1008.4
20260505180833 14 203 0.0 0.0 0.00 0.36 0.00 91 1011.2
20260505180831 16 63 6.4 9.7 0.00 0.74 0.00 85 1012.4
20260505180813 15 5 0.0 0.0 0.00 0.00 0.00 80 1013.3
20260505180344 18 202 4.8 16.1 0.00 0.00 0.00 71 1012.4
20260505180338 15 81 1.6 1.6 0.00 0.15 0.00 84 1013.4
20260505180334 16 48 8.0 9.7 0.00 0.74 0.00 85 1012.5
20260505180332 16 161 1.6 3.2 0.18 3.53 0.00 91 1009.4
20260505180330 14 203 0.0 0.0 0.00 0.36 0.00 91 1011.2
20260505180323 12 159 0.0 0.0 0.00 0.43 0.00 91 1011.3
20260505180319 15 53 0.0 0.0 0.00 0.00 0.00 79 1013.3
20260505180312 14 136 1.6 6.4 0.03 0.23 0.00 88 1011.6
20260505175844 18 181 9.7 17.7 0.00 0.00 0.00 71 1012.3
20260505175838 15 81 0.0 3.2 0.00 0.15 0.00 85 1013.4
20260505175833 11 331 1.6 4.8 0.00 0.86 0.00 88 1008.3
20260505175831 16 78 6.4 9.7 0.00 0.74 0.00 85 1012.4
20260505175828 16 157 1.6 3.2 0.18 3.53 0.00 91 1009.8
20260505175819 13 161 0.0 6.4 0.00 0.43 0.00 91 1011.4
20260505175815 14 72 3.2 14.5 0.03 0.23 0.00 88 1011.7
20260505175813 15 320 0.0 6.4 0.00 0.00 0.00 79 1013.3
20260505175348 18 188 6.4 19.3 0.00 0.00 0.00 70 1012.3
20260505175341 15 81 0.0 3.2 0.00 0.15 0.00 85 1013.4
20260505175336 13 158 0.0 0.0 0.00 0.43 0.00 90 1011.4
20260505175333 14 203 0.0 0.0 0.00 0.36 0.00 91 1011.2
20260505175331 16 80 6.4 12.9 0.00 0.74 0.00 85 1012.5
20260505175313 15 330 6.4 8.0 0.00 0.00 0.00 79 1013.3
20260505174846 18 316 0.0 0.0 0.00 5.77 0.00 85 1010.7
20260505174844 18 195 11.3 14.5 0.00 0.00 0.00 70 1012.4
20260505174839 11 311 3.2 8.0 0.00 0.86 0.00 88 1008.2
20260505174834 16 157 3.2 4.8 0.10 3.45 0.00 90 1009.8
20260505174831 17 67 8.0 9.7 0.00 0.74 0.00 85 1012.6
20260505174820 13 158 0.0 0.0 0.00 0.41 0.00 90 1011.4
20260505174816 15 320 0.0 6.4 0.00 0.00 0.00 79 1013.3
20260505174344 18 207 4.8 16.1 0.00 0.00 0.00 70 1012.3
20260505174338 15 81 6.4 8.0 0.00 0.15 0.00 84 1013.3
20260505174336 14 203 0.0 0.0 0.00 0.36 0.00 91 1011.2
20260505174328 16 48 1.6 3.2 0.05 3.40 0.00 90 1009.5
20260505174319 13 158 0.0 0.0 0.00 0.41 0.00 90 1011.3
20260505174315 15 123 6.4 14.5 0.05 0.23 0.00 87 1011.7
20260505174313 15 356 0.0 3.2 0.00 0.00 0.00 80 1013.3
20260505173844 18 203 9.7 16.1 0.00 0.00 0.00 70 1012.4
20260505173837 17 60 6.4 11.3 0.00 0.74 0.00 84 1012.3
20260505173833 14 203 0.0 0.0 0.00 0.36 0.00 91 1011.2
20260505173831 16 34 3.2 4.8 0.05 3.40 0.00 90 1009.5
20260505173820 13 158 0.0 1.6 0.00 0.41 0.00 90 1011.4
20260505173816 15 22 0.0 6.4 0.00 0.00 0.00 79 1013.3
20260505173812 15 178 9.7 17.7 0.03 0.20 0.00 87 1011.8
20260505173346 18 300 0.0 0.0 0.00 5.77 0.00 84 1010.7
20260505173341 18 169 12.9 16.1 0.00 0.00 0.00 69 1012.4
20260505173338 15 87 6.4 6.4 0.00 0.15 0.00 84 1013.3
20260505173333 11 323 4.8 8.0 0.00 0.86 0.00 88 1008.1
20260505173330 15 203 0.0 0.0 0.00 0.36 0.00 91 1011.2
20260505173322 13 161 0.0 6.4 0.00 0.41 0.00 90 1011.4
20260505173314 16 308 0.0 4.8 0.00 0.00 0.00 79 1013.4
20260505173312 15 146 6.4 12.9 0.03 0.20 0.00 86 1011.8
20260505172843 15 63 4.8 4.8 0.00 0.15 0.00 84 1013.4
20260505172841 18 180 4.8 16.1 0.00 0.00 0.00 69 1012.6
20260505172833 14 203 0.0 0.0 0.03 0.36 0.00 90 1011.3
20260505172831 17 67 6.4 16.1 0.00 0.74 0.00 83 1012.3
20260505172824 13 161 3.2 6.4 0.00 0.41 0.00 90 1011.4
20260505172816 16 319 0.0 6.4 0.00 0.00 0.00 79 1013.3
20260505172812 15 163 3.2 8.0 0.03 0.20 0.00 86 1011.9
20260505172341 15 63 3.2 6.4 0.00 0.15 0.00 84 1013.4
20260505172339 10 337 6.4 6.4 0.00 0.86 0.00 88 1008.1
20260505172337 17 61 17.7 17.7 0.00 0.74 0.00 83 1012.3
20260505172330 14 203 0.0 0.0 0.00 0.36 0.00 90 1011.2
20260505172325 13 148 0.0 0.0 0.00 0.41 0.00 89 1011.4
20260505172318 15 126 3.2 11.3 0.00 0.18 0.00 85 1011.8
20260505172314 16 334 3.2 8.0 0.00 0.00 0.00 79 1013.3
20260505171844 18 266 0.0 0.0 0.00 5.77 0.00 85 1010.7
20260505171841 18 213 9.7 17.7 0.00 0.00 0.00 69 1012.6
20260505171838 15 59 4.8 6.4 0.00 0.15 0.00 83 1013.5
20260505171836 10 324 4.8 8.0 0.00 0.86 0.00 88 1008.1
20260505171833 15 203 0.0 0.0 0.00 0.36 0.00 90 1011.3
20260505171831 17 78 6.4 20.9 0.00 0.74 0.00 83 1012.2
20260505171827 13 148 0.0 0.0 0.00 0.41 0.00 89 1011.4
20260505171814 16 342 4.8 9.7 0.00 0.00 0.00 78 1013.2
20260505171812 15 155 9.7 14.5 0.00 0.18 0.00 85 1011.8
20260505171341 16 59 4.8 9.7 0.00 0.15 0.00 82 1013.5
20260505171334 16 175 4.8 4.8 0.05 3.35 0.00 89 1009.5
20260505171331 17 61 6.4 17.7 0.00 0.74 0.00 83 1012.2
20260505171324 13 153 0.0 0.0 0.00 0.41 0.00 88 1011.3
20260505171317 16 4 4.8 8.0 0.00 0.00 0.00 78 1013.2
20260505171312 15 140 3.2 14.5 0.00 0.18 0.00 85 1011.7
20260505170842 19 216 6.4 20.9 0.00 0.00 0.00 67 1012.6
20260505170838 16 54 9.7 11.3 0.00 0.15 0.00 80 1013.4
20260505170834 17 65 6.4 14.5 0.00 0.74 0.00 83 1012.2
20260505170828 16 135 1.6 4.8 0.05 3.35 0.00 88 1009.5
20260505170825 13 153 0.0 0.0 0.00 0.41 0.00 87 1011.3
20260505170814 16 302 0.0 4.8 0.00 0.00 0.00 77 1013.1
20260505170812 15 172 8.0 8.0 0.00 0.18 0.00 85 1011.7
20260505170348 19 195 20.9 20.9 0.00 0.00 0.00 68 1012.6
20260505170343 19 206 0.0 0.0 0.00 5.77 0.00 84 1010.8
20260505170338 16 103 6.4 11.3 0.00 0.15 0.00 79 1013.3
20260505170334 17 71 4.8 16.1 0.00 0.74 0.00 83 1012.2
20260505170330 15 203 0.0 0.0 0.05 0.36 0.00 90 1011.3
20260505170328 16 134 1.6 11.3 0.05 3.35 0.00 88 1009.5
20260505170325 13 153 0.0 0.0 0.00 0.41 0.00 87 1011.3
20260505170318 15 234 6.4 12.9 0.00 0.18 0.00 84 1011.7
20260505170314 16 283 0.0 9.7 0.00 0.00 0.00 77 1013.2
20260505165845 19 213 17.7 22.5 0.00 0.00 0.00 68 1012.5
20260505165838 16 136 4.8 6.4 0.00 0.15 0.00 78 1013.5
20260505165836 10 334 3.2 4.8 0.00 0.86 0.00 88 1008.1
20260505165831 16 181 1.6 8.0 0.05 3.35 0.00 87 1009.7
20260505165822 12 153 0.0 0.0 0.00 0.41 0.00 88 1011.3
20260505165814 16 281 1.6 9.7 0.00 0.00 0.00 77 1013.3
20260505165812 15 127 4.8 16.1 0.00 0.18 0.00 83 1011.8
20260505165344 19 229 11.3 20.9 0.00 0.00 0.00 66 1012.6
20260505165340 18 81 12.9 19.3 0.00 0.74 0.00 82 1012.2
20260505165338 16 61 6.4 12.9 0.00 0.15 0.00 77 1013.4
20260505165336 15 203 0.0 1.6 0.05 0.36 0.00 89 1011.4
20260505165333 10 355 3.2 6.4 0.00 0.86 0.00 88 1008.2
20260505165331 16 191 0.0 6.4 0.05 3.35 0.00 87 1009.7
20260505165323 13 153 0.0 0.0 0.00 0.41 0.00 89 1011.3
20260505165315 16 132 8.0 12.9 0.00 0.18 0.00 82 1011.8
20260505164846 19 133 0.0 0.0 0.00 5.77 0.00 85 1010.8
20260505164844 16 140 3.2 12.9 0.00 0.15 0.00 78 1013.4
20260505164836 10 355 4.8 9.7 0.00 0.86 0.00 88 1008.3
20260505164833 15 203 0.0 1.6 0.05 0.36 0.00 89 1011.4
20260505164831 16 171 1.6 9.7 0.05 3.35 0.00 87 1009.7
20260505164819 13 153 0.0 3.2 0.00 0.41 0.00 90 1011.4
20260505164814 16 316 0.0 11.3 0.00 0.00 0.00 77 1013.4
20260505164812 16 187 4.8 11.3 0.00 0.18 0.00 81 1011.7
20260505164344 20 210 8.0 20.9 0.00 0.00 0.00 64 1012.5
20260505164340 17 86 8.0 19.3 0.00 0.74 0.00 83 1012.3
20260505164336 15 203 0.0 3.2 0.05 0.36 0.00 89 1011.4
20260505164332 16 139 1.6 9.7 0.05 3.35 0.00 86 1009.9
20260505164319 13 153 1.6 4.8 0.00 0.41 0.00 91 1011.5
20260505164314 16 300 6.4 8.0 0.00 0.00 0.00 77 1013.4
20260505164312 16 136 6.4 9.7 0.00 0.18 0.00 81 1011.8
20260505163844 20 236 16.1 19.3 0.00 0.00 0.00 63 1012.5
20260505163838 16 126 1.6 9.7 0.00 0.15 0.00 79 1013.4
20260505163831 18 45 6.4 12.9 0.00 0.74 0.00 84 1012.3
20260505163828 16 117 8.0 17.7 0.05 3.35 0.00 84 1009.9
20260505163819 13 153 0.0 4.8 0.00 0.41 0.00 90 1011.5
20260505163814 16 320 6.4 9.7 0.00 0.00 0.00 77 1013.4
20260505163812 16 144 4.8 8.0 0.00 0.18 0.00 81 1011.7
20260505163347 20 222 11.3 17.7 0.00 0.00 0.00 63 1012.5
20260505163343 19 11 0.0 0.0 0.00 5.77 0.00 85 1010.8
20260505163338 16 101 4.8 12.9 0.00 0.15 0.00 79 1013.4
20260505163333 10 335 4.8 8.0 0.00 0.86 0.00 88 1008.3
20260505163331 18 102 3.2 16.1 0.00 0.74 0.00 83 1012.4
20260505163328 17 120 8.0 20.9 0.05 3.35 0.00 84 1009.9
20260505163323 16 282 4.8 9.7 0.00 0.00 0.00 77 1013.4
20260505163319 13 151 1.6 4.8 0.00 0.41 0.00 90 1011.6
20260505163312 16 107 4.8 9.7 0.00 0.18 0.00 81 1011.7
20260505162841 20 195 11.3 17.7 0.00 0.00 0.00 62 1012.4
20260505162838 16 58 9.7 12.9 0.00 0.15 0.00 80 1013.2
20260505162834 18 68 3.2 11.3 0.00 0.74 0.00 84 1012.4
20260505162829 18 110 19.3 20.9 0.05 3.35 0.00 83 1009.5
20260505162822 13 152 0.0 4.8 0.00 0.41 0.00 90 1011.7
20260505162817 16 319 0.0 9.7 0.00 0.00 0.00 77 1013.4
20260505162815 16 235 0.0 9.7 0.00 0.18 0.00 80 1011.8
20260505162345 20 193 14.5 19.3 0.00 0.00 0.00 61 1012.4
20260505162341 16 59 8.0 16.1 0.00 0.15 0.00 82 1013.3
20260505162334 17 113 6.4 16.1 0.00 0.74 0.00 84 1012.4
20260505162332 18 130 11.3 16.1 0.00 3.30 0.00 84 1009.5
20260505162320 16 302 6.4 8.0 0.00 0.00 0.00 77 1013.4
20260505162312 16 169 6.4 12.9 0.00 0.18 0.00 79 1011.8
20260505161846 20 208 12.9 20.9 0.00 0.00 0.00 60 1012.5
20260505161843 19 311 0.0 0.0 0.00 5.77 0.00 85 1010.9
20260505161841 16 48 9.7 17.7 0.00 0.15 0.00 82 1013.5
20260505161837 17 59 3.2 14.5 0.00 0.74 0.00 84 1012.4
20260505161834 10 34 3.2 6.4 0.00 0.86 0.00 89 1008.4
20260505161830 15 203 1.6 4.8 0.03 0.33 0.00 86 1011.4
20260505161820 16 299 3.2 6.4 0.00 0.00 0.00 79 1013.5
20260505161818 16 181 8.0 14.5 0.00 0.18 0.00 79 1011.7
20260505161343 16 65 9.7 11.3 0.00 0.15 0.00 82 1013.5
20260505161340 20 217 4.8 12.9 0.00 0.00 0.00 60 1012.6
20260505161334 10 327 6.4 6.4 0.00 0.86 0.00 88 1008.4
20260505161331 17 71 9.7 17.7 0.00 0.74 0.00 84 1012.3
20260505161319 13 153 0.0 0.0 0.00 0.41 0.00 87 1011.6
20260505161314 16 304 0.0 8.0 0.00 0.00 0.00 79 1013.5
20260505160842 20 215 6.4 20.9 0.00 0.00 0.00 58 1012.6
20260505160840 17 80 11.3 16.1 0.00 0.74 0.00 84 1012.3
20260505160838 15 101 4.8 12.9 0.00 0.15 0.00 82 1013.6
20260505160833 16 203 0.0 3.2 0.00 0.30 0.00 86 1011.4
20260505160822 13 153 0.0 0.0 0.00 0.41 0.00 87 1011.7
20260505160817 16 334 6.4 8.0 0.00 0.00 0.00 79 1013.6
20260505160815 16 148 6.4 14.5 0.00 0.18 0.00 79 1011.8
20260505160348 20 189 9.7 20.9 0.00 0.00 0.00 57 1012.6
20260505160346 19 292 0.0 0.0 0.00 5.77 0.00 84 1010.9
20260505160338 15 93 9.7 16.1 0.00 0.15 0.00 82 1013.6
20260505160334 10 14 3.2 11.3 0.00 0.86 0.00 88 1008.3
20260505160330 16 203 4.8 4.8 0.00 0.28 0.00 84 1011.5
20260505160328 19 150 4.8 12.9 0.00 3.30 0.00 81 1009.1
20260505160325 13 154 0.0 0.0 0.00 0.41 0.00 87 1011.6
20260505160315 16 180 3.2 6.4 0.00 0.18 0.00 78 1011.9
20260505153347 15 83 6.4 16.1 0.00 0.15 0.00 80 1013.8
20260505153345 19 314 0.0 0.0 0.00 5.77 0.00 85 1011.0
20260505153343 20 212 6.4 19.3 0.00 0.00 0.00 56 1012.7
20260505153334 10 14 8.0 11.3 0.00 0.86 0.00 88 1008.4
20260505153331 18 113 6.4 12.9 0.00 0.74 0.00 83 1012.4
20260505153329 18 175 3.2 14.5 0.00 3.30 0.00 83 1009.3
20260505153319 13 163 0.0 0.0 0.00 0.41 0.00 87 1011.7
20260505153317 17 32 3.2 4.8 0.00 0.00 0.00 78 1013.6
20260505153312 16 219 8.0 11.3 0.00 0.18 0.00 78 1011.9
20260505152847 15 63 9.7 14.5 0.00 0.15 0.00 80 1013.8
20260505152845 20 197 11.3 19.3 0.00 0.00 0.00 57 1012.8
20260505152834 10 30 4.8 6.4 0.00 0.84 0.00 88 1008.4
20260505152829 18 104 8.0 9.7 0.00 3.30 0.00 83 1009.3
20260505152820 13 163 0.0 0.0 0.00 0.41 0.00 89 1011.7
20260505152814 17 329 0.0 8.0 0.00 0.00 0.00 78 1013.5
20260505152812 16 178 8.0 16.1 0.00 0.18 0.00 79 1011.8
20260505152340 10 355 1.6 9.7 0.00 0.84 0.00 88 1008.3
20260505152338 15 73 11.3 17.7 0.00 0.15 0.00 80 1013.7
20260505152336 16 203 3.2 4.8 0.00 0.28 0.00 80 1011.4
20260505152332 18 176 4.8 16.1 0.00 3.30 0.00 83 1009.3
20260505152325 13 163 0.0 0.0 0.00 0.41 0.00 89 1011.7
20260505152318 16 165 6.4 6.4 0.00 0.18 0.00 79 1011.9
20260505152314 17 356 6.4 6.4 0.00 0.00 0.00 77 1013.5
20260505151846 19 266 0.0 0.0 0.00 5.77 0.00 85 1011.0
20260505151844 20 201 8.0 16.1 0.00 0.00 0.00 60 1012.8
20260505151838 15 54 9.7 16.1 0.00 0.15 0.00 79 1013.8
20260505151834 10 342 3.2 16.1 0.03 0.84 0.00 88 1008.2
20260505151832 18 119 9.7 19.3 0.00 3.30 0.00 83 1009.3
20260505151830 16 203 0.0 1.6 0.00 0.28 0.00 82 1011.4
20260505151824 13 163 0.0 0.0 0.00 0.41 0.00 89 1011.8
20260505151821 16 176 3.2 8.0 0.00 0.18 0.00 79 1011.9
20260505151817 17 319 0.0 6.4 0.00 0.00 0.00 77 1013.6
20260505151344 15 65 14.5 17.7 0.00 0.15 0.00 78 1013.8
20260505151341 20 184 8.0 17.7 0.00 0.00 0.00 59 1012.9
20260505151337 10 5 9.7 14.5 0.03 0.84 0.00 88 1008.1
20260505151334 18 110 6.4 11.3 0.00 0.74 0.00 81 1012.4
20260505151332 18 180 4.8 19.3 0.00 3.30 0.00 83 1009.4
20260505151330 16 203 0.0 4.8 0.00 0.28 0.00 80 1011.4
20260505151319 13 163 0.0 0.0 0.00 0.41 0.00 89 1011.8
20260505151314 17 326 1.6 9.7 0.00 0.00 0.00 76 1013.6
20260505151312 16 172 3.2 6.4 0.00 0.18 0.00 78 1011.9
20260505150844 15 64 16.1 16.1 0.00 0.15 0.00 77 1013.8
20260505150834 10 346 3.2 9.7 0.03 0.84 0.00 88 1008.1
20260505150831 18 65 4.8 12.9 0.00 0.74 0.00 81 1012.5
20260505150829 18 151 4.8 16.1 0.00 3.30 0.00 82 1009.4
20260505150821 16 227 3.2 3.2 0.00 0.18 0.00 79 1011.9
20260505150819 13 163 0.0 3.2 0.00 0.41 0.00 90 1011.8
20260505150344 20 212 8.0 17.7 0.00 0.00 0.00 60 1012.9
20260505150341 15 53 8.0 16.1 0.00 0.15 0.00 77 1013.7
20260505150337 18 84 3.2 8.0 0.00 0.74 0.00 82 1012.5
20260505150334 10 325 8.0 16.1 0.08 0.84 0.00 88 1008.1
20260505150330 16 203 0.0 0.0 0.00 0.28 0.00 83 1011.3
20260505150324 13 163 3.2 3.2 0.00 0.41 0.00 90 1011.8
20260505150317 17 357 4.8 8.0 0.00 0.00 0.00 75 1013.7
20260505150312 16 194 0.0 0.0 0.00 0.18 0.00 79 1011.9
20260505140351 18 331 0.0 0.0 0.00 5.77 0.00 90 1011.1
20260505140343 21 242 8.0 20.9 0.00 0.00 0.00 60 1013.1
20260505140341 16 67 12.9 24.1 0.00 0.15 0.00 72 1013.8
20260505140338 17 163 14.5 24.1 0.00 3.30 0.00 90 1009.5
20260505140334 10 355 14.5 17.7 0.00 0.76 0.00 88 1008.3
20260505140331 17 83 3.2 12.9 0.00 0.74 0.00 87 1012.7
20260505140322 12 98 0.0 0.0 0.05 0.38 0.00 90 1012.1
20260505140317 16 314 3.2 6.4 0.00 0.00 0.00 77 1013.7
20260505140312 16 180 0.0 0.0 0.00 0.18 0.00 78 1012.3